GFSWCAN_850_dewp_225.txt.gz
Dewpoint
-13 -9 -4 -2 -1 -2 -2 -1 -1 -2 -2 -1 -1 -1 -1 -1 -1 -0 0 -1 0 -0 -0 1 2 2 3 5 6 4 6 5 5 8 8 6 7 7 8 6 7 9 9 9 9 10 10 3 1 5 4 -2 -2 -1
-11 -11 -11 -8 -3 -2 -1 -2 -2 -1 -1 -0 -1 -1 -1 -1 -1 0 0 -0 -0 -0 -1 -0 -0 0 2 1 1 2 4 4 4 6 6 5 5 5 7 9 5 8 7 8 8 8 4 2 2 0 -1 -2 -3 -4
-11 -5 -3 -7 -8 -3 -2 -2 -1 -1 -1 -1 -2 -1 -1 -1 -1 0 0 -0 -0 -1 -1 -1 -1 -3 -2 0 1 0 1 1 1 1 3 4 5 4 6 7 5 5 4 6 6 6 4 2 2 -0 -1 -2 -1 0
-7 -3 -2 -2 -3 -5 -2 -2 -2 -1 -1 -1 -1 -0 -0 -1 -1 0 0 -0 -1 -1 -1 -1 -2 -2 -3 -2 -1 0 1 1 0 0 0 1 3 2 5 5 6 4 4 5 5 3 3 3 2 2 1 1 3 3
-3 -3 -3 -2 -2 -2 -3 -2 -2 -2 -1 -1 -0 -0 -0 -1 0 0 -0 -0 -1 -2 -1 -1 -2 -1 -1 -1 -0 1 1 1 -0 -0 1 2 1 1 1 2 3 3 4 5 6 4 4 3 2 1 2 3 1 1
-2 -2 -1 -2 -2 -2 -2 -2 -2 -2 -2 -1 -1 -1 -1 -0 -0 -0 -1 -0 -0 -0 -2 -2 -2 -2 -2 -1 0 0 1 1 0 -0 0 -0 1 2 2 3 1 2 2 2 3 3 4 3 3 -1 -2 -4 -1 0
-1 -1 -1 -1 -1 -2 -2 -2 -2 -2 -1 -1 -1 -1 -0 -0 -0 -0 -1 -1 -0 -0 -2 -1 -3 -2 -2 -1 -0 0 1 0 0 -0 -0 1 -0 1 2 2 -1 -2 -2 -2 -0 1 2 1 0 -2 -2 -1 -2 -6
-1 -0 -2 -1 -1 -1 -2 -2 -2 -2 -0 -1 -0 -0 -0 0 -1 -1 -1 -1 -0 -1 -1 -1 -3 -3 -2 -1 -0 -0 -0 -1 -1 -0 -1 1 1 1 2 -0 -2 -3 -3 -3 -3 -2 0 -0 -2 -2 -2 -3 -6 -5
-2 -0 -1 -1 -2 -2 -2 -2 -1 -1 -0 -0 -0 -0 -1 -1 -1 -1 -1 -1 -1 -1 -1 -2 -3 -2 -2 -1 -1 -1 -0 0 -1 0 -0 0 1 1 -1 -1 -2 -3 -2 -3 -3 -3 -3 -2 -1 -2 -2 -2 -2 -1
-2 -2 -2 -2 -1 -1 -2 -1 -1 -1 -1 -0 -1 -1 -1 -1 -1 -1 -1 -1 -0 -1 -2 -3 -4 -2 -2 -1 -0 -1 -1 -0 -0 -1 -1 1 -1 -3 -4 -3 -3 -3 -3 -3 -2 -2 -2 -1 -1 -0 -0 -1 -0 -0
-2 -2 -1 -2 -2 -2 -1 -1 -1 -1 -1 -2 -3 -3 -2 -1 -1 -1 -2 -1 -3 -2 -3 -3 -3 -2 -2 -1 -1 -2 -1 -2 -1 -2 -1 -2 -2 -3 -6 -7 -6 -5 -4 -3 -3 -3 -2 -2 -1 -0 -0 -1 -1 -1
-2 -2 -2 -3 -2 -2 -2 -2 -2 -3 -4 -4 -2 -3 -2 -2 -2 -2 -2 -2 -3 -3 -3 -2 -2 -2 -2 -2 -1 -2 -1 -2 -2 -3 -2 -2 -3 -5 -6 -6 -6 -6 -4 -4 -4 -1 -2 -1 -1 -1 -1 -1 -1 -2
-2 -2 -3 -3 -3 -3 -4 -4 -4 -4 -4 -5 -4 -3 -4 -4 -4 -3 -2 -2 -2 -3 -2 -2 -2 -2 -2 -2 -2 -2 -2 -2 -4 -2 -3 -4 -5 -5 -4 -3 -2 -2 -2 -1 -0 -0 -1 -1 -1 -1 -1 -2 -4 -6
-1 -2 -3 -3 -2 -2 -3 -3 -4 -7 -8 -7 -5 -4 -5 -4 -5 -4 -4 -4 -4 -4 -2 -3 -3 -2 -3 -2 -3 -2 -3 -3 -2 -3 -3 -4 -5 -5 -2 -2 -2 -1 -1 -1 -1 -2 -2 -3 -3 -4 -5 -5 -5 -6
-1 -2 -2 -2 -2 -3 -3 -5 -7 -7 -8 -7 -8 -8 -5 -6 -4 -4 -4 -3 -3 -2 -3 -3 -3 -4 -2 -2 -3 -3 -2 -3 -3 -3 -3 -4 -3 -2 -2 -2 -1 -1 -1 -2 -3 -5 -5 -5 -5 -5 -5 -6 -7 -9
-3 -2 -2 -2 -3 -3 -4 -4 -8 -8 -6 -5 -4 -4 -4 -4 -4 -3 -3 -3 -2 -3 -4 -4 -3 -2 -2 -2 -2 -3 -3 -3 -4 -3 -3 -3 -3 -4 -2 -2 -3 -2 -3 -4 -4 -5 -5 -5 -6 -7 -7 -8 -9 -10
-13 -8 -5 -4 -4 -4 -4 -5 -9 -9 -5 -4 -4 -3 -4 -5 -5 -4 -4 -3 -3 -3 -2 -3 -3 -4 -3 -2 -3 -4 -2 -3 -3 -3 -3 -3 -4 -3 -3 -3 -3 -3 -4 -5 -6 -7 -7 -7 -7 -7 -8 -8 -9 -9
-11 -11 -9 -8 -9 -9 -8 -6 -8 -6 -4 -3 -4 -4 -3 -3 -3 -3 -3 -4 -3 -2 -3 -3 -5 -3 -3 -4 -3 -4 -4 -4 -4 -4 -3 -3 -3 -3 -3 -4 -4 -5 -6 -6 -6 -6 -7 -7 -8 -10 -10 -11 -11 -11
-20 -13 -12 -7 -6 -6 -9 -8 -8 -6 -5 -3 -3 -3 -2 -3 -3 -3 -3 -2 -2 -3 -2 -2 -3 -3 -3 -4 -4 -5 -4 -4 -4 -4 -4 -3 -3 -3 -4 -5 -6 -6 -6 -6 -7 -8 -10 -10 -11 -11 -12 -12 -14 -16
-22 -14 -11 -10 -6 -9 -10 -8 -8 -6 -4 -5 -3 -3 -3 -3 -3 -3 -3 -2 -2 -2 -3 -4 -5 -5 -5 -5 -4 -4 -4 -4 -4 -5 -5 -4 -4 -5 -5 -6 -5 -6 -6 -7 -9 -10 -11 -11 -12 -14 -16 -19 -20 -15
-20 -11 -11 -8 -6 -8 -8 -6 -6 -6 -5 -4 -3 -3 -4 -3 -3 -3 -3 -3 -3 -4 -5 -7 -6 -6 -5 -4 -4 -4 -3 -4 -4 -5 -5 -4 -4 -4 -5 -5 -5 -6 -8 -9 -10 -11 -11 -13 -16 -18 -21 -19 -15 -15
-11 -9 -7 -6 -6 -7 -7 -6 -7 -6 -5 -4 -3 -3 -4 -4 -4 -4 -3 -4 -6 -8 -8 -8 -9 -7 -4 -5 -4 -4 -4 -4 -4 -6 -5 -6 -5 -6 -6 -6 -7 -8 -9 -9 -10 -11 -13 -16 -18 -20 -18 -17 -17 -15
-11 -10 -8 -7 -7 -8 -7 -6 -6 -5 -4 -4 -4 -5 -5 -5 -6 -5 -5 -6 -7 -8 -9 -9 -8 -7 -4 -5 -4 -4 -4 -4 -5 -7 -7 -7 -6 -6 -7 -7 -7 -8 -9 -10 -11 -13 -15 -17 -19 -19 -17 -17 -14 -13
-10 -7 -8 -6 -9 -12 -7 -6 -6 -5 -5 -4 -4 -5 -5 -6 -5 -5 -4 -6 -6 -8 -8 -7 -6 -5 -4 -4 -4 -4 -4 -5 -6 -6 -7 -7 -6 -6 -6 -7 -8 -9 -10 -12 -13 -14 -15 -17 -19 -16 -16 -17 -15 -14
-6 -8 -7 -10 -8 -10 -9 -8 -7 -7 -7 -6 -6 -8 -5 -5 -5 -6 -6 -7 -6 -6 -7 -5 -4 -5 -5 -4 -4 -4 -4 -4 -5 -6 -6 -6 -6 -7 -8 -8 -9 -11 -12 -13 -14 -14 -15 -17 -19 -15 -15 -16 -15 -15
-8 -10 -9 -9 -9 -8 -8 -8 -9 -9 -8 -8 -8 -7 -6 -6 -6 -6 -7 -8 -7 -6 -5 -5 -5 -5 -5 -4 -4 -5 -5 -5 -6 -6 -6 -7 -8 -10 -10 -11 -12 -12 -13 -13 -14 -14 -15 -17 -17 -15 -16 -16 -15 -15
-7 -10 -8 -8 -8 -8 -8 -9 -8 -9 -10 -10 -8 -7 -9 -8 -7 -8 -10 -9 -7 -7 -6 -5 -5 -5 -5 -5 -5 -6 -6 -7 -7 -8 -9 -11 -12 -13 -14 -15 -15 -15 -15 -15 -15 -15 -15 -17 -16 -15 -16 -16 -16 -16
-8 -8 -7 -7 -6 -7 -9 -9 -9 -9 -9 -9 -9 -9 -9 -9 -9 -11 -6 -6 -4 -5 -5 -5 -5 -5 -4 -5 -6 -7 -7 -7 -8 -9 -10 -12 -12 -12 -14 -15 -20 -19 -17 -16 -16 -19 -21 -20 -16 -15 -15 -16 -16 -16
-7 -7 -7 -10 -11 -8 -9 -9 -8 -9 -9 -8 -9 -9 -10 -10 -9 -5 -5 -4 -6 -6 -5 -5 -5 -4 -5 -5 -7 -8 -8 -8 -9 -11 -11 -12 -12 -13 -14 -19 -21 -20 -19 -19 -20 -20 -20 -19 -15 -15 -15 -16 -16 -17
-8 -7 -10 -14 -11 -9 -8 -8 -9 -9 -8 -8 -8 -8 -7 -6 -6 -6 -5 -4 -5 -5 -5 -5 -5 -6 -7 -9 -9 -8 -8 -9 -10 -11 -11 -12 -13 -14 -18 -20 -19 -18 -18 -19 -20 -18 -16 -15 -15 -16 -16 -17 -17 -17
-7 -7 -11 -11 -11 -9 -8 -7 -7 -7 -7 -8 -7 -8 -7 -7 -6 -6 -6 -5 -5 -4 -5 -6 -10 -10 -12 -11 -12 -11 -9 -10 -10 -11 -12 -13 -14 -17 -20 -19 -18 -17 -18 -19 -19 -18 -17 -16 -16 -17 -18 -18 -18 -18
-7 -10 -9 -7 -7 -7 -7 -6 -6 -7 -7 -7 -7 -7 -7 -7 -7 -7 -7 -7 -5 -5 -5 -10 -14 -12 -11 -11 -11 -10 -10 -11 -11 -11 -12 -18 -22 -21 -20 -18 -18 -18 -19 -18 -18 -18 -17 -18 -18 -18 -18 -18 -18 -18
-10 -9 -9 -8 -7 -7 -7 -6 -8 -10 -8 -9 -8 -7 -7 -8 -8 -8 -7 -8 -9 -7 -6 -6 -10 -10 -9 -8 -8 -8 -10 -11 -12 -13 -15 -22 -22 -21 -20 -19 -19 -19 -19 -19 -18 -18 -18 -17 -17 -18 -18 -18 -18 -18

GFSWCAN_850_dewp_228.txt.gz
Dewpoint
-10 -11 -6 -8 -4 -2 -1 -1 -0 0 0 -0 -1 -1 -0 -1 -0 -0 -0 -0 1 0 1 2 2 3 3 4 7 5 7 6 7 9 8 7 8 8 8 6 7 9 9 9 9 10 10 4 3 6 4 2 2 1
-11 -10 -4 -3 -7 -3 -3 -2 -1 -1 -1 -1 -1 -1 -1 -0 -0 0 0 -0 -1 0 -0 1 1 2 2 2 1 1 2 4 3 7 7 6 6 7 8 9 5 8 8 8 8 8 5 4 4 3 3 3 2 0
-11 -8 -3 -2 -2 -5 -3 -2 -2 -2 -1 -1 -2 -2 -1 -1 -1 -0 1 0 -0 -0 -1 -2 -2 -2 -3 -2 1 1 1 1 0 -0 1 3 4 4 7 8 7 6 5 7 7 6 4 4 4 2 1 1 -0 -2
-1 -2 -2 -3 -2 -2 -4 -3 -2 -2 -2 -2 -1 -1 -1 -1 -1 0 1 -0 -0 -0 0 0 -2 -1 -3 -4 -3 -2 1 1 1 0 0 1 3 1 5 5 7 6 6 7 7 5 4 4 4 5 3 1 1 1
-2 -2 -2 -3 -2 -2 -2 -3 -2 -3 -1 -1 -1 -1 -1 -1 -1 0 0 0 0 -3 0 -0 -1 -1 -2 -2 0 0 0 1 0 0 1 3 2 2 2 2 4 4 6 6 7 5 5 4 3 3 3 3 3 4
-2 -1 -1 -1 -2 -1 -2 -2 -2 -2 -2 -1 -1 -1 -1 -1 -1 0 -1 -0 0 -1 -1 0 -1 -1 -2 -0 0 0 1 1 0 -0 1 0 1 2 4 4 -1 -0 2 3 4 4 3 3 4 4 3 1 -0 -1
-1 -2 -2 -1 -1 -1 -2 -2 -2 -2 -2 -1 -1 -0 -0 -0 0 -0 -1 -2 0 -1 -1 -0 -1 -2 -1 -1 -0 1 1 1 0 -0 0 1 1 1 2 3 -3 -3 -1 -1 2 1 1 1 1 1 1 0 -1 -2
-1 -1 -2 -1 -1 -2 -2 -3 -2 -2 -2 -2 -1 -1 -0 0 -0 -0 -1 -1 -0 -1 -1 0 -1 -2 -1 -1 -1 -0 0 -0 -0 -0 -1 1 2 1 3 -0 -3 -4 -4 -3 -1 -0 -2 -3 -3 -1 -0 -1 -2 -2
-2 -2 -2 -2 -2 -2 -3 -2 -2 -1 -1 -1 -0 -1 -0 -0 -1 -1 -1 -1 -1 -1 0 -1 -2 -1 -2 -2 -1 -1 -1 -0 -0 1 2 1 2 2 -1 -3 -4 -5 -3 -3 -3 -3 -3 -2 -2 -2 -1 -1 -2 -2
-2 -3 -2 -2 -1 -1 -1 -1 -0 -1 0 -0 -0 -1 -1 -1 -1 -1 -1 -1 -1 -1 -1 -2 -5 -2 -3 -3 -1 -1 -1 -0 0 -1 -0 2 -2 -5 -6 -5 -4 -3 -3 -3 -2 -2 -1 -2 -2 -1 -1 -1 -1 -1
-3 -2 -2 -1 -2 -2 -1 -1 -1 -1 -0 -2 -2 -2 -2 -1 -1 -1 -1 -0 -1 -0 -1 -3 -4 -2 -2 -2 -2 -3 -1 -1 0 -2 -0 -1 -3 -4 -5 -4 -3 -3 -3 -3 -3 -3 -2 -2 -1 -0 0 -0 -1 -0
-3 -2 -1 -2 -1 -1 -1 -1 -1 -2 -4 -2 -2 -1 -2 -1 -1 -1 -1 -2 -2 -3 -2 -2 -2 -3 -1 -1 -2 -1 -1 -2 -1 -3 -1 -1 -5 -5 -4 -3 -3 -2 -3 -3 -2 -2 -1 -0 -1 -1 -1 -1 -1 -1
-2 -2 -2 -2 -2 -2 -2 -3 -3 -2 -3 -4 -4 -4 -1 -2 -1 -2 -1 -2 -2 -3 -2 -2 -1 -2 -2 -1 -2 -1 -1 -1 -4 -2 -3 -5 -6 -6 -4 -2 -1 -1 -1 -1 -0 -1 -1 -1 -1 -1 -1 -1 -2 -2
-3 -2 -2 -4 -3 -4 -6 -5 -6 -6 -9 -4 -3 -2 -1 -2 -3 -4 -5 -4 -3 -3 -3 -3 -2 -1 -1 -1 -1 -0 -3 -3 -2 -2 -4 -4 -3 -2 -2 -1 -1 -2 -1 -1 -1 -1 -1 -2 -2 -3 -3 -3 -5 -6
-3 -3 -3 -3 -3 -5 -5 -7 -9 -9 -9 -5 -6 -2 -3 -3 -3 -3 -3 -3 -2 -2 -2 -1 -2 -2 -1 -0 -2 -3 -2 -3 -4 -4 -4 -2 -2 -2 -2 -2 -2 -2 -2 -3 -3 -4 -4 -4 -4 -5 -5 -6 -6 -7
-2 -3 -2 -3 -4 -3 -4 -5 -7 -9 -7 -4 -4 -3 -4 -2 -2 -2 -2 -2 -2 -2 -2 -2 -1 -1 -1 -2 -2 -2 -4 -4 -5 -3 -2 -3 -3 -3 -3 -2 -3 -3 -3 -4 -5 -5 -5 -5 -5 -6 -7 -8 -9 -10
-6 -6 -3 -3 -4 -4 -4 -4 -6 -8 -5 -5 -2 -2 -3 -3 -2 -2 -3 -3 -2 -3 -2 -3 -2 -3 -3 -2 -3 -5 -3 -4 -2 -3 -3 -3 -3 -3 -3 -3 -3 -3 -4 -4 -5 -5 -6 -7 -8 -8 -8 -8 -9 -9
-11 -10 -11 -10 -10 -8 -6 -7 -7 -6 -6 -3 -4 -3 -2 -2 -2 -2 -2 -2 -3 -3 -3 -3 -5 -3 -3 -4 -4 -3 -3 -3 -3 -3 -3 -3 -3 -3 -4 -4 -4 -4 -5 -6 -7 -7 -7 -7 -7 -8 -9 -11 -11 -12
-19 -15 -13 -11 -8 -7 -8 -7 -8 -7 -5 -3 -3 -3 -2 -3 -3 -2 -2 -2 -2 -2 -2 -3 -3 -3 -4 -6 -5 -4 -3 -4 -4 -4 -4 -4 -4 -4 -4 -4 -5 -6 -6 -6 -6 -6 -7 -8 -9 -9 -10 -11 -11 -11
-21 -21 -12 -11 -6 -6 -8 -6 -9 -6 -6 -5 -3 -4 -4 -3 -3 -3 -2 -2 -3 -2 -1 -1 -3 -4 -4 -3 -3 -2 -3 -3 -4 -3 -4 -4 -4 -5 -6 -6 -5 -6 -6 -7 -8 -9 -10 -10 -11 -12 -14 -16 -12 -11
-17 -18 -11 -11 -6 -7 -6 -6 -7 -7 -5 -5 -4 -3 -3 -3 -3 -2 -2 -3 -2 -2 -3 -3 -3 -5 -7 -6 -4 -3 -3 -3 -3 -4 -4 -4 -5 -5 -5 -6 -6 -6 -7 -7 -7 -10 -9 -10 -12 -15 -16 -13 -16 -13
-10 -10 -8 -6 -5 -6 -6 -6 -6 -5 -5 -5 -3 -3 -3 -2 -3 -3 -3 -3 -3 -4 -4 -4 -7 -8 -7 -5 -5 -4 -4 -3 -3 -3 -4 -5 -5 -5 -5 -5 -6 -7 -7 -8 -8 -9 -10 -13 -17 -19 -13 -18 -16 -15
-8 -10 -7 -6 -6 -7 -6 -6 -6 -6 -5 -5 -4 -4 -4 -3 -4 -4 -3 -5 -5 -4 -7 -7 -8 -8 -7 -5 -5 -4 -4 -4 -4 -4 -5 -4 -5 -5 -6 -6 -7 -7 -8 -9 -9 -10 -13 -17 -20 -18 -17 -14 -13 -13
-7 -7 -7 -6 -6 -7 -6 -5 -5 -6 -5 -5 -5 -4 -5 -5 -5 -4 -4 -6 -5 -6 -7 -8 -8 -7 -5 -4 -4 -4 -4 -4 -4 -6 -6 -7 -6 -6 -6 -7 -7 -8 -8 -9 -11 -14 -16 -18 -19 -18 -17 -16 -16 -15
-7 -7 -7 -7 -7 -6 -4 -4 -5 -5 -4 -6 -6 -5 -5 -5 -4 -5 -5 -6 -5 -5 -5 -5 -5 -5 -4 -3 -4 -4 -4 -4 -5 -6 -6 -5 -6 -6 -7 -7 -8 -9 -10 -12 -14 -15 -16 -17 -20 -17 -16 -16 -15 -15
-7 -8 -7 -7 -7 -6 -5 -4 -4 -5 -5 -5 -5 -6 -5 -5 -4 -4 -7 -6 -4 -4 -4 -5 -4 -4 -4 -4 -4 -4 -4 -5 -5 -6 -6 -7 -6 -6 -7 -8 -9 -10 -12 -12 -14 -15 -16 -17 -19 -16 -16 -16 -16 -16
-7 -7 -9 -8 -9 -8 -6 -7 -8 -6 -5 -5 -5 -5 -4 -4 -4 -6 -7 -9 -5 -6 -4 -4 -4 -5 -5 -5 -4 -4 -5 -5 -5 -5 -6 -6 -8 -9 -9 -10 -10 -11 -13 -14 -15 -15 -16 -17 -18 -16 -16 -17 -16 -16
-8 -9 -6 -7 -7 -8 -6 -6 -6 -5 -6 -8 -6 -4 -4 -5 -7 -8 -8 -6 -7 -6 -5 -5 -5 -5 -5 -5 -5 -6 -6 -6 -7 -7 -8 -10 -13 -14 -15 -16 -16 -17 -17 -16 -16 -16 -18 -20 -18 -15 -15 -16 -16 -16
-7 -8 -7 -6 -6 -6 -6 -6 -6 -7 -8 -7 -5 -5 -6 -8 -10 -9 -6 -5 -5 -6 -6 -6 -6 -6 -5 -5 -6 -6 -8 -8 -8 -9 -10 -11 -12 -13 -14 -16 -21 -20 -19 -19 -21 -21 -21 -20 -16 -15 -15 -16 -16 -17
-7 -7 -7 -7 -6 -6 -6 -7 -6 -8 -8 -7 -7 -8 -7 -6 -7 -7 -6 -5 -6 -6 -6 -6 -5 -5 -5 -5 -6 -7 -8 -8 -9 -11 -11 -12 -12 -13 -14 -19 -21 -21 -21 -21 -21 -20 -20 -18 -15 -15 -16 -17 -17 -17
-7 -6 -6 -7 -6 -6 -6 -7 -8 -8 -8 -7 -8 -6 -6 -6 -7 -7 -6 -5 -6 -5 -5 -5 -5 -5 -5 -6 -8 -9 -8 -8 -10 -11 -12 -12 -13 -14 -19 -21 -21 -20 -21 -21 -20 -18 -16 -16 -16 -17 -17 -17 -18 -18
-7 -7 -6 -6 -6 -6 -7 -6 -5 -5 -6 -5 -5 -6 -7 -6 -5 -8 -7 -5 -5 -5 -5 -5 -5 -6 -7 -9 -10 -11 -11 -12 -11 -11 -12 -13 -14 -18 -21 -21 -20 -20 -20 -20 -19 -18 -17 -17 -17 -18 -18 -18 -18 -18
-8 -7 -7 -7 -7 -7 -6 -5 -6 -6 -6 -6 -6 -6 -6 -6 -6 -8 -7 -7 -6 -5 -6 -7 -9 -11 -11 -11 -11 -11 -11 -11 -11 -12 -13 -18 -22 -23 -22 -21 -20 -20 -20 -20 -19 -19 -18 -18 -18 -18 -18 -18 -19 -18

GFSWCAN_850_dewp_231.txt.gz
Dewpoint
-10 -10 -10 -4 -5 -3 -1 -0 -0 -1 -0 -0 -1 -2 -2 -2 1 2 2 2 2 1 1 2 3 4 5 6 7 6 8 8 8 8 8 7 8 8 8 6 6 9 9 9 9 9 10 2 2 6 4 3 2 2
-8 -4 -4 -3 -2 -5 -2 -1 -0 0 -1 -0 -0 -1 -1 -1 -1 -1 0 0 1 1 0 1 2 2 3 2 3 3 3 4 2 7 7 7 7 8 8 10 4 8 8 9 8 8 5 3 3 3 2 3 3 3
-2 -2 -2 -1 -2 -2 -6 -2 -1 -1 0 0 0 -0 -1 -1 -1 -0 -0 -0 -0 -0 -0 -1 1 1 2 2 2 1 1 1 0 1 1 2 4 3 8 8 6 5 4 8 8 6 5 3 3 4 3 4 4 3
-2 -2 -2 -2 -1 -3 -3 -4 -2 -2 -1 -1 -0 -0 -1 -0 -0 0 1 -0 -1 -1 0 1 -2 -0 -0 0 1 0 1 1 0 0 1 3 4 1 5 3 4 5 6 7 7 6 6 5 5 6 6 5 4 2
-2 -2 -2 -2 -2 -2 -2 -3 -3 -2 -2 -1 -1 -1 -1 -1 -0 0 0 0 -1 -2 1 1 0 0 0 1 1 1 2 2 1 0 1 3 2 3 3 3 3 -0 4 7 7 5 5 5 5 5 4 3 3 3
-1 -1 -2 -1 -2 -2 -2 -2 -3 -3 -2 -2 -2 -1 -1 -1 0 0 -0 0 0 -1 -0 1 0 0 0 0 1 1 1 1 1 1 1 1 2 1 4 3 -2 -3 -4 -3 2 4 3 3 4 3 4 4 3 3
-1 -1 -0 -1 -1 -2 -2 -3 -3 -3 -2 -1 -1 -1 -1 -0 0 0 -0 -1 -0 0 0 1 0 -1 -1 0 1 1 1 1 1 0 1 -0 -0 1 3 3 -3 -4 -5 -4 -2 3 3 1 -0 0 1 0 -0 1
-2 -2 -1 -1 -1 -2 -3 -2 -2 -2 -1 -1 -1 -0 -1 0 0 0 -1 -2 0 0 -0 1 1 -1 -1 -1 -0 1 1 0 0 0 0 1 -1 2 3 -3 -5 -5 -5 -5 -5 -1 -0 -2 -2 -3 -3 -3 -0 0
-2 -3 -2 -2 -2 -2 -3 -2 -2 -1 -1 0 0 0 0 0 -0 -0 -0 0 0 -0 1 -1 -2 -0 -1 -1 -0 -0 -0 1 0 1 -1 -2 -1 1 -2 -5 -6 -6 -6 -4 -5 -5 -5 -5 -3 -3 -4 -3 -1 -1
-2 -1 -1 -2 -2 -1 -1 -1 -0 -1 -1 0 0 -0 -1 -0 -0 -1 -0 -1 -0 -1 -0 -1 -6 -1 -4 -2 -2 -1 -1 -1 -1 -3 -2 1 -2 -5 -6 -6 -6 -6 -6 -4 -3 -3 -3 -4 -3 -2 -3 -3 -1 -1
-1 -1 -1 -1 -1 -0 -1 -1 -0 -0 -0 -1 -1 -2 -1 -1 -1 -1 -1 0 -1 1 -1 -3 -6 -2 -3 -2 -1 -4 -1 -3 -1 -3 -1 -2 -4 -6 -5 -4 -3 -3 -3 -4 -5 -5 -4 -4 -4 -2 0 0 -1 -1
-1 -2 -2 -1 -1 -0 -1 -1 -0 -0 -1 -1 -1 -1 -1 -1 -1 0 0 -1 -2 -3 -2 -2 -4 -3 -2 -2 -2 -1 -1 -3 -2 -3 -1 -3 -6 -5 -5 -4 -3 -2 -2 -2 -3 -3 -1 -0 0 -0 -0 -0 -0 -1
-2 -2 -2 -2 -1 -1 -1 -1 -1 -2 -2 -1 -1 -2 0 -1 0 -0 -0 -3 -3 -3 -3 -2 0 -1 -1 -1 -2 -2 -0 -1 -4 -1 -2 -7 -7 -4 -4 -3 -2 -1 -1 -0 -1 -1 -1 -1 -1 -1 -2 -2 -2 -3
-2 -3 -3 -4 -3 -3 -4 -4 -3 -5 -2 -2 -2 -1 -0 0 -2 -5 -6 -5 -3 -3 -3 -3 -2 -2 -1 -1 -2 -0 -4 -3 -2 -1 -4 -5 -1 -2 -2 -1 -1 -2 -2 -1 -1 -1 -1 -2 -2 -2 -2 -2 -2 -4
-3 -3 -3 -4 -4 -5 -6 -7 -8 -5 -5 -5 -5 -0 -2 -2 -2 -2 -2 -2 -2 -2 -2 -1 -2 -2 -2 0 -2 -3 -2 -2 -4 -5 -3 -1 -2 -3 -2 -1 -2 -2 -2 -2 -2 -2 -3 -3 -3 -4 -4 -5 -5 -6
-2 -2 -3 -4 -4 -4 -5 -4 -4 -4 -4 -5 -5 -2 -3 -1 -2 -2 -2 -2 -2 -2 -2 -1 -2 -1 -1 -2 -2 -2 -4 -4 -5 -5 -1 -3 -3 -3 -2 -2 -2 -3 -3 -3 -3 -4 -4 -5 -5 -5 -7 -8 -8 -9
-3 -3 -3 -3 -4 -4 -4 -4 -4 -6 -6 -6 -2 -3 -2 -2 -1 -2 -2 -2 -2 -1 -0 -3 -2 -2 -3 -2 -2 -5 -4 -4 -1 -2 -3 -3 -3 -2 -2 -3 -3 -3 -3 -3 -4 -4 -5 -5 -6 -6 -7 -8 -8 -9
-5 -4 -7 -6 -6 -6 -5 -5 -5 -6 -9 -6 -3 -3 -3 -2 -2 -3 -3 -2 -3 -3 -4 -2 -4 -2 -2 -4 -5 -4 -4 -2 -3 -3 -3 -3 -2 -3 -3 -3 -3 -3 -4 -4 -5 -5 -6 -6 -7 -7 -8 -9 -9 -9
-8 -9 -14 -14 -11 -5 -6 -6 -5 -7 -8 -5 -4 -4 -3 -3 -3 -2 -2 -2 -3 -3 -3 -3 -4 -4 -5 -6 -5 -5 -3 -3 -3 -3 -2 -2 -3 -3 -4 -4 -4 -4 -6 -6 -6 -6 -6 -7 -7 -8 -9 -10 -10 -10
-18 -21 -20 -14 -9 -5 -7 -7 -6 -8 -8 -6 -5 -5 -5 -5 -4 -3 -2 -1 -2 -2 -2 -3 -4 -6 -5 -4 -3 -3 -2 -3 -3 -3 -3 -3 -4 -4 -4 -4 -4 -5 -5 -6 -6 -7 -8 -9 -10 -10 -12 -12 -11 -11
-10 -8 -16 -11 -5 -4 -7 -8 -9 -9 -8 -7 -6 -6 -6 -4 -4 -4 -2 -2 -2 -3 -4 -5 -5 -2 -3 -4 -5 -2 -2 -3 -3 -4 -3 -3 -4 -4 -4 -4 -5 -5 -5 -6 -6 -7 -8 -8 -10 -11 -10 -10 -11 -11
-5 -9 -6 -5 -5 -6 -8 -9 -9 -8 -8 -8 -5 -6 -7 -3 -4 -4 -3 -3 -3 -5 -5 -4 -3 -2 -7 -9 -7 -2 -3 -3 -3 -3 -3 -3 -4 -4 -5 -5 -5 -5 -6 -7 -7 -7 -8 -10 -11 -11 -11 -11 -12 -12
-6 -7 -5 -5 -6 -7 -6 -6 -8 -9 -8 -6 -6 -7 -7 -5 -5 -4 -3 -5 -6 -6 -5 -4 -4 -3 -3 -9 -6 -3 -4 -3 -3 -3 -3 -3 -4 -4 -5 -5 -5 -6 -7 -7 -8 -8 -9 -13 -18 -11 -12 -11 -12 -12
-6 -5 -5 -5 -6 -5 -6 -6 -9 -10 -10 -8 -7 -7 -8 -6 -5 -5 -5 -7 -8 -6 -4 -4 -3 -3 -4 -5 -3 -3 -3 -3 -3 -3 -3 -3 -4 -5 -5 -5 -6 -6 -7 -7 -8 -9 -10 -11 -15 -11 -12 -12 -13 -12
-7 -7 -5 -6 -6 -5 -5 -5 -7 -9 -5 -6 -8 -7 -5 -6 -5 -6 -6 -7 -7 -6 -4 -4 -4 -4 -4 -3 -3 -2 -3 -3 -3 -4 -3 -5 -5 -5 -6 -6 -7 -7 -8 -9 -9 -10 -11 -11 -12 -12 -12 -12 -13 -13
-7 -8 -6 -7 -6 -6 -7 -6 -6 -6 -7 -6 -7 -8 -6 -5 -4 -4 -8 -7 -4 -2 -4 -4 -3 -5 -5 -4 -3 -3 -3 -3 -4 -4 -4 -4 -5 -6 -6 -7 -8 -9 -9 -9 -10 -11 -11 -12 -12 -13 -14 -15 -15 -14
-8 -7 -9 -9 -9 -9 -7 -7 -8 -7 -6 -6 -6 -5 -4 -4 -5 -7 -6 -6 -5 -3 -3 -3 -4 -5 -5 -4 -4 -3 -3 -3 -4 -4 -5 -6 -6 -6 -6 -7 -7 -8 -10 -10 -10 -11 -12 -12 -13 -13 -13 -14 -15 -15
-8 -9 -7 -8 -8 -9 -6 -6 -5 -5 -6 -9 -7 -5 -5 -5 -7 -6 -5 -6 -6 -4 -4 -4 -4 -5 -5 -4 -4 -5 -5 -5 -5 -5 -6 -6 -7 -8 -9 -10 -9 -13 -14 -13 -12 -12 -12 -12 -13 -13 -14 -15 -15 -16
-8 -9 -9 -6 -7 -8 -6 -6 -6 -7 -7 -7 -4 -5 -5 -7 -5 -5 -8 -7 -5 -5 -5 -5 -5 -5 -5 -6 -6 -5 -5 -5 -5 -7 -7 -8 -10 -12 -15 -16 -17 -19 -19 -19 -20 -20 -14 -13 -13 -14 -15 -15 -16 -16
-9 -9 -8 -7 -7 -7 -6 -8 -5 -4 -7 -6 -6 -7 -7 -4 -7 -10 -8 -6 -5 -6 -6 -6 -6 -6 -6 -6 -6 -6 -7 -7 -7 -8 -7 -7 -8 -13 -14 -15 -20 -20 -20 -21 -22 -21 -21 -19 -17 -16 -16 -16 -16 -17
-8 -8 -7 -8 -7 -7 -4 -5 -7 -7 -6 -5 -6 -4 -4 -4 -7 -8 -7 -5 -6 -6 -6 -6 -6 -6 -6 -6 -6 -7 -8 -8 -8 -9 -10 -11 -12 -13 -14 -18 -20 -17 -20 -20 -20 -16 -16 -15 -15 -16 -16 -16 -17 -17
-6 -7 -7 -7 -6 -5 -6 -5 -5 -5 -4 -4 -4 -4 -5 -4 -4 -5 -7 -6 -5 -6 -6 -6 -6 -6 -5 -5 -6 -8 -10 -9 -10 -12 -12 -13 -13 -13 -18 -22 -21 -18 -15 -15 -14 -15 -15 -15 -15 -16 -17 -17 -17 -18
-8 -8 -8 -8 -6 -6 -6 -6 -6 -5 -5 -5 -5 -5 -5 -4 -5 -5 -8 -6 -6 -6 -6 -5 -5 -5 -6 -6 -9 -10 -10 -10 -11 -12 -13 -13 -14 -18 -22 -22 -21 -21 -18 -15 -15 -15 -15 -15 -16 -16 -17 -18 -18 -18

GFSWCAN_850_dewp_234.txt.gz
Dewpoint
-3 -2 -2 -2 -2 -2 -3 -1 0 0 -0 -0 -0 -0 1 3 5 5 3 4 4 2 2 3 4 5 6 7 8 7 8 7 8 9 8 6 8 7 8 6 8 9 9 9 9 10 9 3 2 6 4 3 3 3
-2 -3 -3 -2 -2 -2 -3 -1 -0 0 0 -0 -1 -1 -0 1 3 3 3 3 4 2 1 2 3 3 4 5 5 4 4 3 2 7 6 6 7 8 8 9 5 9 8 9 9 8 5 4 4 3 5 6 5 4
-1 -1 -2 -2 -2 -2 -2 -2 -0 0 0 -0 -0 -0 -1 -1 0 1 1 2 2 0 -0 1 1 2 2 3 3 2 1 1 0 0 1 2 8 4 8 8 7 6 5 8 8 6 5 4 6 6 6 6 6 6
-2 -2 -2 -2 -2 -2 -3 -4 -1 0 0 0 -0 -0 -0 -0 -0 -0 0 0 1 0 1 1 0 1 1 1 2 2 1 1 0 0 0 1 3 1 4 4 3 4 3 6 7 5 4 4 4 4 3 3 5 5
-2 -1 -1 -2 -2 -2 -3 -4 -2 -1 -0 0 0 -0 -0 0 0 0 -0 -1 -0 0 1 1 1 1 1 1 2 1 1 1 0 0 1 2 2 2 3 3 3 -1 2 6 6 5 4 3 2 0 2 3 2 2
-2 -0 -1 -1 -2 -2 -2 -3 -2 -1 -1 -1 -0 -0 -0 0 0 0 1 0 -0 0 0 2 1 1 1 1 1 2 1 1 1 1 1 1 2 2 3 3 -3 -3 -3 -3 -1 -2 -0 2 3 2 3 2 2 3
-1 -0 -0 -1 -2 -2 -2 -3 -2 -2 -1 -1 -1 -1 0 0 0 0 -0 -0 -1 -2 -0 2 0 -1 0 1 1 1 1 1 1 1 1 1 1 1 3 1 -4 -4 -5 -5 -5 -5 -4 -3 -1 1 0 -2 -2 -0
-2 -1 -1 -1 -2 -2 -3 -3 -3 -2 -1 -1 -1 0 0 0 0 -0 -2 -0 -0 -2 1 2 1 -1 -0 -0 1 1 1 1 1 1 1 1 -1 1 2 -3 -6 -7 -7 -7 -7 -6 -5 -4 -3 -1 -3 -4 -2 -3
-2 -2 -2 -2 -2 -2 -2 -2 -1 -1 -1 -1 -0 -0 -0 0 0 0 0 0 0 -0 1 -0 -1 1 -0 -1 0 0 0 1 0 1 -0 -2 -1 1 -1 -4 -6 -6 -5 -5 -5 -6 -4 -4 -4 -5 -5 -4 -3 -3
-1 -0 -1 -2 -2 -1 -1 -1 -1 0 0 0 -0 -0 -1 -0 -0 -0 0 0 -0 -1 1 -1 -3 -0 -2 -2 -1 -1 -1 -1 0 -2 -3 -1 -2 -5 -6 -6 -6 -3 -3 -3 -3 -2 -3 -3 -2 -3 -3 -0 -0 -1
-1 -1 -1 -1 -1 -1 -1 -1 0 0 0 -0 -2 -2 -1 -0 -1 -1 -1 0 -0 0 -1 -2 -3 -2 -3 -1 -0 -3 0 -2 -1 -3 -1 -1 -3 -5 -2 -3 -4 -3 -3 -4 -5 -5 -5 -4 -2 -0 -0 -0 -0 -1
-2 -1 -1 -0 -0 -1 -0 -0 0 -0 -1 -1 -1 -1 -0 -0 -0 0 0 -1 -2 -3 -2 -2 -1 -3 -3 -2 -2 -1 -2 -3 -3 -3 0 -1 -3 -5 -5 -5 -3 -2 -0 0 0 0 -1 -1 -1 -1 -0 -1 -1 -1
-2 -2 -2 -1 -1 -1 -0 -1 -1 -2 -1 -1 -1 -1 0 -0 0 0 -0 -3 -1 -2 -3 -1 1 -1 -1 -2 -1 -2 -1 -1 -5 -0 -2 -6 -5 -3 -3 -3 -1 -1 -1 -1 -1 -1 -1 -1 -1 -1 -2 -2 -3 -3
-2 -2 -2 -2 -2 -2 -1 -1 -1 -1 -1 -1 -2 0 0 -0 -2 -3 -4 -3 -3 -2 -2 -1 -0 -1 -2 -2 -1 -0 -4 -3 -1 -1 -4 -2 -1 -2 -2 -2 -2 -2 -2 -2 -2 -2 -2 -2 -2 -2 -3 -3 -3 -3
-3 -3 -4 -4 -4 -4 -5 -6 -7 -4 -3 -4 -4 -0 -2 -2 -1 -1 -1 -1 -1 -1 -1 -1 -1 -3 -2 0 -2 -3 -1 -2 -4 -6 -1 -0 -2 -3 -3 -2 -2 -2 -2 -2 -2 -3 -3 -3 -3 -4 -4 -4 -5 -6
-3 -3 -4 -4 -5 -5 -5 -3 -3 -4 -4 -4 -5 -2 -2 -1 -1 -2 -0 -1 -1 -1 -2 -2 -2 -0 -1 -2 -3 -2 -4 -5 -6 -1 -0 -2 -3 -3 -2 -2 -2 -2 -2 -3 -3 -4 -4 -5 -5 -6 -7 -8 -8 -9
-3 -2 -3 -4 -5 -5 -4 -3 -4 -6 -6 -6 -2 -2 -2 -2 -1 -2 -2 -2 -2 -1 0 -2 -1 -2 -3 -2 -3 -5 -4 -4 -1 -1 -2 -3 -3 -3 -3 -3 -3 -3 -3 -4 -4 -4 -5 -5 -6 -6 -7 -7 -8 -10
-3 -3 -4 -4 -5 -5 -4 -5 -4 -5 -8 -6 -3 -3 -2 -2 -2 -3 -2 -2 -2 -1 -2 -2 -4 -3 -2 -4 -4 -3 -4 -1 -1 -2 -2 -3 -3 -3 -3 -3 -3 -3 -4 -4 -5 -5 -6 -6 -6 -7 -8 -9 -8 -8
-5 -7 -9 -12 -13 -5 -6 -7 -5 -5 -8 -6 -5 -4 -4 -3 -3 -3 -3 -4 -2 -3 -2 -3 -4 -4 -3 -4 -3 -5 -3 -2 -2 -3 -3 -3 -3 -3 -3 -3 -4 -4 -5 -5 -5 -6 -6 -7 -7 -8 -8 -9 -9 -9
-18 -21 -18 -16 -13 -4 -8 -8 -6 -7 -8 -6 -5 -5 -5 -5 -4 -3 -2 -1 -2 -2 -2 -3 -4 -4 -4 -4 -3 -3 -2 -2 -2 -3 -3 -3 -4 -4 -3 -4 -4 -5 -5 -6 -6 -7 -7 -8 -9 -9 -11 -13 -9 -9
-9 -8 -20 -15 -7 -4 -6 -8 -8 -9 -9 -7 -6 -6 -6 -6 -5 -4 -4 -4 -1 -2 -4 -5 -5 -4 -2 -3 -6 -2 -1 -2 -2 -3 -3 -4 -4 -4 -4 -4 -5 -6 -6 -6 -6 -7 -6 -7 -9 -9 -10 -10 -11 -11
-4 -7 -7 -7 -6 -7 -9 -9 -10 -10 -9 -9 -6 -6 -6 -2 -4 -5 -5 -3 -4 -4 -5 -5 -4 -3 -3 -6 -9 -2 -2 -2 -3 -4 -3 -3 -3 -4 -5 -5 -5 -6 -6 -6 -7 -7 -8 -9 -9 -10 -11 -11 -12 -14
-6 -7 -6 -7 -7 -7 -6 -7 -9 -9 -8 -9 -8 -8 -8 -7 -7 -5 -2 -4 -5 -6 -5 -4 -4 -3 -2 -4 -6 -3 -3 -3 -3 -4 -4 -3 -4 -4 -5 -5 -5 -6 -6 -6 -7 -7 -9 -10 -15 -13 -12 -11 -11 -12
-5 -5 -6 -5 -7 -5 -6 -6 -9 -11 -11 -10 -7 -7 -9 -7 -6 -4 -4 -6 -7 -6 -5 -5 -3 -2 -2 -3 -3 -5 -4 -2 -3 -4 -4 -4 -4 -5 -5 -6 -6 -6 -6 -7 -8 -9 -10 -10 -14 -11 -12 -12 -13 -13
-5 -7 -5 -5 -6 -5 -5 -5 -8 -9 -7 -7 -7 -7 -6 -6 -5 -6 -6 -7 -7 -7 -4 -4 -3 -3 -2 -3 -2 -2 -5 -3 -4 -4 -4 -5 -5 -6 -5 -6 -6 -7 -7 -7 -8 -9 -10 -11 -11 -12 -12 -12 -12 -14
-6 -8 -6 -7 -7 -7 -7 -6 -6 -6 -7 -6 -7 -8 -5 -5 -6 -5 -7 -6 -5 -3 -5 -4 -3 -3 -3 -4 -2 -2 -3 -3 -4 -4 -4 -4 -5 -6 -6 -6 -7 -7 -8 -8 -9 -10 -11 -11 -11 -13 -13 -13 -13 -14
-7 -7 -9 -10 -9 -10 -9 -8 -10 -7 -6 -6 -7 -4 -5 -5 -5 -7 -4 -4 -4 -3 -3 -3 -3 -3 -4 -4 -4 -3 -4 -4 -4 -4 -4 -4 -5 -5 -6 -6 -7 -8 -9 -9 -9 -11 -11 -12 -13 -12 -13 -14 -14 -14
-8 -10 -7 -8 -9 -10 -8 -7 -6 -5 -6 -9 -6 -4 -5 -6 -5 -4 -3 -4 -5 -4 -4 -4 -3 -3 -4 -4 -3 -3 -4 -4 -4 -4 -5 -5 -6 -6 -6 -7 -7 -7 -9 -10 -10 -12 -12 -12 -13 -13 -14 -14 -14 -15
-8 -9 -9 -6 -7 -8 -8 -7 -7 -9 -9 -8 -4 -5 -6 -5 -3 -3 -8 -10 -6 -5 -4 -4 -4 -4 -4 -4 -4 -4 -4 -4 -4 -4 -5 -7 -7 -7 -7 -8 -9 -11 -16 -16 -14 -13 -13 -13 -13 -13 -14 -15 -15 -16
-11 -11 -8 -7 -6 -7 -8 -9 -6 -5 -6 -6 -5 -6 -5 -4 -7 -10 -10 -7 -5 -5 -5 -5 -5 -5 -5 -4 -5 -5 -5 -5 -5 -5 -6 -7 -8 -9 -13 -15 -17 -20 -21 -20 -20 -19 -15 -14 -14 -15 -15 -15 -16 -16
-9 -10 -9 -7 -7 -8 -7 -4 -5 -6 -6 -5 -5 -4 -4 -3 -6 -8 -7 -5 -5 -6 -6 -6 -6 -6 -6 -6 -6 -6 -6 -6 -6 -6 -7 -8 -9 -12 -13 -14 -17 -18 -21 -22 -22 -20 -18 -15 -15 -15 -15 -15 -16 -16
-7 -8 -7 -8 -7 -4 -5 -4 -5 -5 -5 -4 -4 -5 -4 -4 -4 -5 -6 -6 -6 -6 -6 -6 -6 -6 -6 -6 -6 -6 -6 -7 -8 -8 -10 -11 -12 -13 -13 -16 -19 -21 -22 -18 -14 -15 -14 -14 -15 -15 -16 -17 -16 -17
-8 -8 -8 -8 -8 -5 -5 -6 -5 -6 -4 -5 -5 -5 -5 -5 -4 -5 -6 -6 -6 -6 -6 -6 -6 -6 -6 -6 -6 -6 -9 -9 -10 -12 -13 -13 -13 -14 -17 -21 -22 -21 -16 -14 -14 -14 -15 -15 -15 -16 -16 -16 -17 -18

GFSWCAN_850_dewp_237.txt.gz
Dewpoint
-2 -2 -2 -2 -2 -2 -2 -3 -1 -0 -0 -1 -0 1 5 2 3 7 6 5 6 2 2 4 5 6 5 4 6 5 6 6 6 7 7 7 7 5 5 3 4 6 7 8 8 9 9 3 3 5 6 7 6 6
-1 -1 -1 -1 -2 -2 -2 -3 -1 0 -0 -0 -0 -0 2 5 6 6 6 6 6 4 1 3 4 4 5 5 5 5 4 5 4 7 7 6 5 5 6 7 3 7 6 6 7 7 4 4 7 6 5 5 4 4
-2 -2 -2 -2 -2 -2 -3 -4 -0 -0 -0 -1 -1 -0 0 2 4 5 5 5 5 1 1 2 2 3 4 5 5 3 2 3 2 3 2 2 6 3 8 7 6 5 6 8 8 7 6 6 5 3 0 0 1 -0
-2 -1 -1 -1 -2 -2 -3 -3 -0 0 -0 -0 -1 -1 0 0 3 4 4 4 4 1 1 -0 1 1 2 3 4 5 3 2 1 1 0 1 3 0 3 3 4 5 4 7 7 6 5 5 3 0 1 1 1 1
-1 -0 -0 -1 -2 -2 -4 -2 -0 0 0 -0 -0 -0 -0 -0 0 2 2 2 2 2 1 -0 1 1 1 1 2 2 2 1 1 0 1 2 -0 1 1 2 3 2 4 5 5 5 4 3 -0 0 2 2 1 2
-1 -1 -0 -1 -2 -2 -3 -2 -1 0 0 0 -0 -0 -0 -0 -0 -0 -1 0 1 -1 0 1 -0 0 0 1 1 1 1 0 1 0 0 1 2 2 2 3 0 -0 -0 -2 -0 -4 -4 -4 -5 -3 2 1 1 -1
-1 -1 -2 -2 -3 -3 -3 -2 -1 -0 0 0 0 0 0 0 -0 0 1 0 1 -0 -1 0 -0 1 1 1 2 2 1 1 1 1 1 1 1 2 2 1 -3 -5 -6 -6 -6 -7 -6 -5 -5 -4 -4 -2 -0 -4
-2 -1 -1 -2 -3 -3 -3 -2 -1 -1 -0 -0 -0 0 0 0 -1 -0 0 -0 -2 -0 0 1 -0 0 1 1 1 1 1 1 1 1 1 1 1 0 1 -0 -3 -5 -6 -6 -6 -6 -6 -6 -4 -4 -3 -2 -3 -3
-1 -2 -3 -3 -3 -3 -2 -2 -2 -1 -0 -0 0 0 0 -0 0 0 0 -1 -2 -2 0 0 0 0 0 0 -0 -0 -0 -0 0 -0 -0 -0 -0 1 -1 -2 -3 -4 -3 -3 -3 -3 -3 -3 -3 -3 -3 -3 -3 -2
-1 -1 -2 -2 -1 -1 -1 -1 -1 -1 0 0 0 -1 0 0 -0 -1 -3 -3 -3 -2 -0 0 -2 -0 -1 -1 -0 -0 -1 0 0 -1 -2 -1 -1 -3 -5 -4 -4 -4 -4 -5 -4 -4 -4 -4 -2 -1 -1 0 0 -0
-1 -1 -1 -1 -1 -1 -0 -0 -1 -0 -0 -0 -1 -1 -0 0 -1 -1 -1 -0 -1 -1 -0 -1 -2 -1 -3 -1 -0 -2 -1 -1 -0 -0 -1 -0 -0 -2 -3 -3 -2 -2 -1 -1 -0 -1 -1 -1 -0 0 0 -0 -0 -1
-1 -1 -1 -1 -1 -1 -0 -0 -0 -0 -0 -0 -1 -0 -1 -1 -1 -1 -1 -1 -1 -0 -1 -1 -1 -2 -3 -3 -1 -2 -2 -2 -2 -2 -2 -1 -2 -3 -4 -2 -2 -2 -2 -2 -2 -1 -2 -2 -2 -1 -1 -2 -2 -2
-2 -2 -1 -1 -0 -0 -1 -1 -1 -1 -1 -1 -1 -1 0 -0 -1 -1 -1 -1 -1 -2 -1 -1 0 -1 -3 -2 -2 -2 -3 -2 -3 -3 -2 -3 -3 -3 -2 -1 -2 -3 -2 -2 -2 -2 -2 -2 -2 -2 -2 -3 -3 -3
-2 -2 -2 -2 -1 -2 -0 -0 -2 -1 -1 -1 -2 -2 -2 -2 -1 -1 -2 -1 -1 -1 0 -2 -1 -2 -2 -2 -2 -2 -3 -2 -2 -4 -2 -3 -2 -2 -3 -3 -4 -2 -2 -3 -3 -2 -2 -3 -3 -3 -3 -3 -4 -4
-3 -4 -4 -3 -3 -4 -4 -4 -6 -3 -2 -4 -3 -2 -2 -1 -1 0 0 -0 0 -0 -3 -2 -2 -3 -2 -3 -2 -2 -2 -2 -2 -3 -2 -1 -2 -2 -2 -2 -3 -3 -3 -3 -3 -3 -3 -3 -3 -3 -4 -4 -5 -6
-3 -3 -4 -5 -5 -5 -4 -3 -3 -3 -4 -4 -4 -2 -1 -3 -2 -0 -1 -0 -1 -3 -3 -2 -2 -3 -1 -2 -2 -3 -2 -3 -3 -2 -1 -3 -3 -2 -2 -3 -3 -3 -2 -3 -4 -4 -4 -5 -5 -6 -7 -8 -9 -10
-3 -2 -3 -5 -6 -6 -6 -5 -3 -6 -6 -5 -2 -2 -2 -2 -3 -3 -3 -3 -3 -2 -2 -2 -3 -2 -3 -2 -2 -3 -4 -2 -1 -1 -2 -3 -3 -2 -3 -3 -3 -3 -4 -4 -4 -5 -5 -6 -7 -8 -8 -9 -9 -10
-2 -2 -4 -4 -5 -6 -4 -5 -5 -5 -7 -5 -2 -2 -2 -3 -3 -3 -3 -3 -3 -1 -2 -2 -3 -2 -3 -2 -3 -3 0 -0 -1 -2 -3 -3 -3 -3 -3 -3 -3 -4 -4 -5 -5 -5 -6 -6 -7 -8 -9 -8 -8 -9
-4 -5 -7 -6 -8 -7 -6 -8 -5 -3 -7 -5 -3 -3 -3 -3 -3 -4 -3 -3 -3 -2 -2 -2 -2 -2 -3 -3 -3 -3 -1 -2 -2 -3 -3 -3 -4 -3 -3 -3 -4 -4 -4 -5 -6 -6 -6 -7 -7 -8 -8 -9 -9 -10
-16 -15 -19 -16 -16 -5 -7 -8 -6 -5 -5 -5 -5 -4 -3 -3 -3 -4 -3 -3 -3 -2 -3 -3 -3 -2 -3 -2 -3 -3 -3 -2 -3 -4 -4 -4 -3 -3 -3 -4 -4 -4 -5 -5 -6 -6 -7 -8 -9 -9 -10 -12 -9 -10
-13 -14 -20 -18 -13 -4 -4 -7 -7 -8 -9 -7 -5 -5 -5 -4 -3 -4 -4 -3 -1 -2 -3 -4 -5 -4 -3 -4 -5 -3 -2 -2 -3 -5 -4 -4 -4 -4 -4 -4 -5 -5 -6 -6 -7 -7 -7 -7 -9 -9 -11 -13 -13 -13
-4 -7 -6 -10 -5 -7 -7 -9 -8 -9 -9 -8 -7 -6 -4 -4 -3 -4 -4 -3 -3 -4 -4 -4 -5 -5 -4 -3 -6 -2 -2 -2 -3 -3 -4 -4 -4 -4 -4 -5 -6 -6 -6 -7 -7 -7 -8 -8 -9 -10 -12 -14 -15 -16
-6 -7 -5 -6 -7 -7 -7 -8 -7 -8 -5 -6 -6 -5 -4 -4 -5 -5 -4 -3 -4 -5 -6 -6 -5 -5 -3 -3 -6 -3 -3 -3 -3 -4 -4 -4 -4 -4 -5 -5 -5 -6 -6 -6 -7 -7 -8 -9 -10 -12 -14 -12 -12 -13
-6 -5 -6 -6 -7 -7 -6 -6 -7 -9 -8 -6 -5 -6 -7 -6 -8 -3 -3 -4 -5 -6 -5 -6 -6 -4 -1 -2 -6 -5 -3 -3 -4 -4 -4 -4 -4 -5 -5 -5 -6 -6 -7 -7 -7 -7 -8 -9 -11 -14 -12 -13 -12 -12
-5 -8 -5 -8 -6 -5 -6 -6 -6 -7 -6 -6 -7 -5 -5 -6 -5 -4 -6 -6 -9 -7 -6 -6 -5 -4 -2 -2 -4 -6 -3 -3 -4 -5 -4 -4 -4 -5 -5 -6 -6 -6 -7 -7 -7 -8 -9 -11 -12 -12 -13 -12 -13 -13
-6 -7 -7 -7 -6 -6 -6 -7 -7 -7 -6 -6 -5 -6 -5 -5 -6 -7 -5 -3 -2 -4 -5 -5 -4 -3 -2 -3 -4 -4 -4 -2 -3 -5 -5 -5 -5 -6 -6 -6 -6 -6 -7 -7 -8 -9 -10 -12 -12 -12 -13 -13 -13 -14
-7 -8 -7 -9 -9 -9 -8 -8 -8 -6 -7 -7 -4 -5 -6 -7 -8 -6 -4 -4 -3 -3 -3 -3 -3 -4 -3 -3 -3 -3 -3 -2 -2 -4 -5 -5 -5 -5 -6 -6 -7 -7 -7 -8 -9 -10 -11 -12 -12 -14 -15 -14 -14 -14
-7 -9 -9 -9 -8 -9 -8 -7 -7 -6 -5 -8 -5 -5 -6 -7 -5 -3 -3 -4 -5 -5 -5 -4 -2 -3 -3 -4 -4 -3 -3 -3 -4 -4 -4 -5 -5 -5 -5 -6 -7 -7 -8 -9 -9 -10 -11 -13 -14 -13 -14 -15 -14 -15
-7 -10 -8 -9 -7 -7 -7 -7 -6 -8 -8 -8 -6 -6 -5 -3 -3 -4 -8 -12 -10 -6 -4 -4 -4 -4 -3 -3 -3 -3 -4 -4 -4 -4 -5 -5 -5 -5 -6 -6 -7 -7 -8 -10 -10 -11 -13 -14 -14 -14 -14 -15 -15 -15
-10 -10 -8 -8 -9 -8 -8 -8 -8 -6 -7 -7 -5 -6 -5 -4 -7 -10 -11 -11 -6 -5 -5 -5 -5 -4 -4 -3 -3 -3 -4 -4 -5 -5 -5 -5 -6 -7 -7 -7 -7 -8 -11 -16 -16 -15 -13 -13 -13 -14 -15 -17 -16 -16
-9 -10 -8 -7 -7 -9 -9 -6 -6 -5 -5 -5 -5 -4 -3 -3 -5 -8 -9 -6 -5 -5 -5 -6 -6 -5 -5 -5 -4 -4 -5 -5 -5 -5 -5 -5 -6 -7 -7 -9 -12 -15 -20 -20 -21 -19 -16 -15 -14 -16 -17 -17 -17 -17
-9 -8 -8 -7 -6 -5 -5 -5 -5 -5 -5 -6 -6 -5 -4 -4 -4 -5 -6 -6 -6 -6 -6 -6 -6 -6 -6 -6 -6 -6 -6 -6 -6 -6 -6 -7 -9 -11 -13 -14 -15 -20 -23 -23 -22 -20 -19 -18 -18 -18 -17 -16 -17 -17
-9 -8 -8 -8 -7 -5 -5 -6 -5 -6 -5 -5 -5 -5 -6 -6 -6 -5 -6 -6 -6 -6 -6 -6 -6 -6 -6 -6 -6 -6 -6 -6 -6 -7 -8 -10 -12 -13 -13 -15 -20 -22 -23 -21 -20 -18 -16 -17 -16 -16 -17 -18 -18 -18

GFSWCAN_850_dewp_240.txt.gz
Dewpoint
-2 -1 -1 -2 -1 -1 -2 -3 -2 -1 -2 -1 -1 -1 -1 -1 -1 -1 -1 0 0 3 3 4 3 2 2 3 4 3 5 5 5 6 6 6 4 4 4 3 3 4 6 6 6 7 7 2 2 3 5 6 5 4
-1 -2 -2 -2 -2 -2 -2 -2 -1 -2 -1 -1 -1 -1 -0 -0 -0 -1 -0 0 2 4 2 4 4 3 2 2 2 4 3 5 6 6 6 5 5 5 5 6 2 5 4 4 5 5 4 6 6 5 4 3 3 3
-2 -1 -0 -1 -1 -2 -2 -2 -3 -1 -1 -1 -1 0 3 4 3 0 1 3 4 1 1 2 2 4 4 4 2 3 3 3 4 4 5 4 6 5 6 5 4 4 3 5 5 3 6 6 4 3 3 3 3 2
-1 -1 -1 -2 -2 -3 -3 -3 -2 0 -1 -1 -1 1 3 3 2 3 4 4 3 2 0 0 1 2 3 5 4 2 2 3 3 3 1 2 4 2 4 4 4 4 5 6 5 6 6 5 4 3 3 2 3 2
-1 -1 -2 -2 -3 -3 -4 -2 0 -0 -0 -1 -1 1 2 4 4 3 4 4 3 2 -0 -0 1 1 2 5 5 4 4 3 3 1 1 2 0 1 1 2 3 3 4 5 5 5 4 4 4 1 1 1 3 2
-2 -3 -3 -3 -3 -4 -1 -0 0 -0 -0 -0 -0 -0 1 2 3 4 3 3 4 0 0 -0 -0 0 1 2 3 4 4 3 1 0 0 -0 1 2 3 2 1 3 2 2 4 3 3 0 -3 -3 -3 -1 -1 1
-1 -2 -3 -3 -3 -2 -1 -0 0 0 -0 -0 -0 -0 -0 2 3 2 0 1 1 1 -1 -1 -0 0 1 1 1 1 1 0 1 -0 0 0 1 1 2 2 -0 -1 1 1 -2 -6 -5 -6 -6 -6 -4 -3 -1 -4
-2 -3 -3 -3 -3 -2 -1 -0 0 0 0 -0 -0 -0 -0 -0 0 0 1 1 2 1 -0 -0 -1 -0 0 0 1 1 0 0 0 1 1 1 1 0 1 -1 -1 -3 -6 -6 -5 -4 -4 -4 -4 -3 -3 -3 -3 -2
-1 -2 -2 -3 -2 -2 -1 -1 -0 -0 -0 0 -1 -1 0 0 -0 -0 -0 -2 -2 -1 0 -0 0 1 1 -0 0 1 -1 0 0 -0 -0 -0 -0 1 -0 -1 -2 -4 -4 -3 -3 -3 -3 -3 -3 -3 -2 -2 -2 -1
-1 -1 -1 -1 -1 -1 -1 -1 -1 -0 0 -0 -2 -3 -0 -0 -0 -2 -4 -5 -4 -2 0 -0 -1 1 -0 -0 -0 -0 -1 -0 -0 -1 -1 -1 -0 -3 -4 -5 -4 -3 -4 -4 -5 -4 -2 -1 -1 -1 -1 -1 -0 -0
-1 -1 -1 -1 -1 -1 -1 -0 -0 -2 -1 -2 -2 -0 -0 -2 -3 -2 -1 -2 -2 -1 -1 -1 -1 -0 -2 -1 -1 -3 -1 -1 0 0 -0 0 0 -2 -3 -3 -3 -3 -3 -3 -2 -1 -1 -1 -0 -0 -0 -1 -1 -1
-1 -1 -1 -1 -0 -1 -2 -1 -2 -2 -1 -1 -1 -1 -1 -1 -1 -2 -1 -1 -1 -0 -1 -1 -2 -3 -3 -3 -1 -2 -1 -1 -0 -1 -1 0 -1 -1 -2 -1 -1 -2 -2 -3 -3 -1 -1 -1 -1 -2 -3 -3 -3 -3
-3 -2 -1 -1 -1 -1 -1 -0 -1 -0 -1 -1 -3 -1 -2 -2 -3 -2 -1 -0 1 -2 -1 -1 -1 -2 -2 -2 -2 -2 -2 -2 -2 -2 -0 -2 -2 -0 -1 -2 -2 -4 -6 -5 -4 -3 -2 -3 -2 -3 -3 -4 -3 -4
-2 -2 -2 -3 -2 -1 -1 -1 -1 -2 -1 -1 -4 -6 -5 -5 -1 -1 -2 -2 -1 -1 -2 -2 -2 -2 -2 -1 -2 -2 -2 -2 -2 -3 -1 -3 -1 -1 -1 -3 -5 -3 -3 -3 -3 -3 -3 -3 -3 -3 -4 -4 -4 -4
-3 -3 -3 -4 -4 -2 -5 -5 -6 -3 -2 -4 -3 -4 -1 -1 -2 0 0 0 -1 -2 -4 -3 -3 -3 -3 -3 -2 -2 -3 -2 -1 -2 -3 -2 -2 -2 -3 -3 -4 -3 -3 -3 -2 -3 -4 -4 -3 -4 -4 -5 -6 -7
-3 -4 -4 -4 -5 -5 -3 -2 -3 -3 -5 -4 -2 -2 -3 -5 -4 -1 -1 -0 -2 -3 -4 -3 -3 -4 -2 -2 -2 -3 -2 -2 -3 -3 -1 -2 -2 -2 -3 -4 -3 -3 -3 -3 -4 -4 -4 -4 -5 -6 -7 -9 -10 -10
-3 -3 -5 -6 -6 -7 -5 -4 -4 -6 -6 -4 -3 -2 -3 -4 -4 -4 -2 -2 -3 -4 -4 -3 -3 -2 -4 -2 -2 -3 -4 -4 -1 -1 -2 -2 -3 -3 -3 -3 -3 -4 -4 -4 -4 -5 -6 -7 -8 -9 -9 -10 -10 -10
-3 -4 -4 -5 -6 -7 -7 -6 -5 -5 -6 -3 -4 -2 -3 -4 -4 -4 -3 -3 -4 -2 -3 -2 -3 -2 -4 -2 -3 -4 -0 -1 -1 -2 -3 -3 -2 -3 -4 -4 -4 -4 -4 -4 -5 -6 -6 -7 -7 -9 -9 -9 -9 -9
-4 -4 -8 -6 -6 -6 -7 -9 -6 -4 -6 -4 -2 -3 -3 -4 -3 -4 -4 -4 -2 -2 -3 -2 -2 -2 -3 -4 -4 -1 -1 -2 -2 -2 -3 -3 -3 -4 -4 -4 -4 -4 -4 -5 -5 -6 -6 -7 -7 -8 -8 -8 -8 -9
-16 -7 -12 -15 -14 -7 -7 -8 -6 -5 -5 -5 -3 -3 -3 -3 -4 -3 -4 -4 -4 -4 -2 -3 -3 -4 -3 -4 -5 -5 -3 -2 -2 -3 -3 -3 -4 -4 -4 -4 -4 -4 -5 -5 -5 -6 -7 -7 -7 -8 -9 -9 -9 -9
-15 -17 -20 -19 -14 -4 -4 -5 -7 -8 -7 -5 -4 -4 -3 -3 -3 -4 -4 -3 -2 -3 -4 -3 -4 -3 -4 -4 -4 -4 -3 -3 -3 -4 -4 -4 -4 -4 -4 -5 -5 -5 -5 -6 -6 -7 -7 -8 -8 -9 -10 -12 -15 -16
-5 -10 -14 -9 -7 -7 -7 -8 -7 -8 -7 -7 -5 -5 -3 -7 -3 -3 -5 -4 -3 -5 -5 -5 -5 -5 -3 -3 -5 -6 -4 -3 -3 -4 -5 -5 -4 -4 -5 -5 -6 -6 -6 -6 -7 -7 -8 -8 -8 -9 -11 -16 -16 -15
-6 -6 -5 -7 -7 -6 -8 -7 -8 -8 -6 -6 -5 -5 -4 -4 -4 -4 -5 -4 -5 -6 -7 -7 -6 -5 -5 -3 -4 -2 -2 -2 -3 -5 -5 -4 -4 -5 -5 -6 -6 -6 -7 -6 -7 -8 -8 -8 -8 -9 -14 -14 -14 -14
-6 -5 -6 -6 -7 -10 -7 -6 -7 -8 -7 -5 -5 -6 -7 -7 -6 -4 -4 -4 -6 -6 -6 -7 -6 -6 -5 -3 -3 -2 -2 -3 -4 -4 -4 -4 -5 -5 -5 -6 -6 -7 -7 -7 -7 -7 -7 -8 -9 -11 -14 -13 -12 -13
-7 -8 -6 -10 -6 -8 -8 -8 -7 -6 -9 -7 -6 -6 -7 -5 -6 -5 -5 -6 -8 -7 -7 -6 -6 -6 -4 -4 -2 -3 -3 -3 -4 -5 -5 -5 -5 -5 -6 -6 -6 -6 -7 -7 -7 -7 -8 -9 -10 -13 -14 -14 -13 -13
-9 -8 -7 -8 -9 -7 -6 -9 -9 -9 -7 -8 -7 -6 -6 -7 -8 -8 -6 -3 -1 -2 -5 -6 -6 -5 -5 -4 -3 -3 -4 -3 -4 -5 -5 -5 -5 -5 -6 -6 -6 -6 -6 -7 -7 -7 -8 -9 -12 -13 -14 -13 -13 -14
-9 -11 -7 -9 -7 -7 -9 -8 -7 -8 -10 -10 -7 -8 -9 -8 -10 -8 -4 -3 -3 -3 -2 -3 -5 -5 -6 -3 -3 -3 -5 -4 -3 -5 -5 -5 -5 -6 -6 -7 -7 -7 -7 -7 -7 -8 -9 -10 -13 -13 -13 -13 -13 -15
-7 -7 -9 -9 -9 -8 -12 -10 -10 -9 -8 -6 -7 -8 -8 -8 -8 -3 -3 -4 -4 -5 -4 -4 -2 -3 -4 -4 -4 -4 -4 -3 -2 -3 -4 -4 -5 -5 -5 -6 -6 -7 -7 -7 -8 -9 -10 -13 -13 -14 -15 -15 -15 -15
-6 -8 -8 -11 -9 -8 -9 -10 -9 -7 -7 -6 -9 -9 -8 -3 -3 -4 -8 -11 -10 -7 -7 -6 -4 -3 -3 -2 -2 -2 -4 -5 -3 -3 -3 -4 -4 -5 -6 -5 -6 -7 -7 -8 -9 -10 -12 -14 -15 -15 -15 -17 -17 -16
-9 -11 -8 -12 -11 -9 -9 -7 -7 -7 -6 -6 -6 -5 -4 -4 -6 -9 -10 -11 -10 -8 -6 -5 -5 -5 -4 -4 -3 -2 -2 -2 -3 -4 -5 -5 -5 -6 -5 -6 -6 -7 -8 -8 -11 -11 -12 -14 -14 -14 -15 -16 -17 -17
-10 -12 -9 -8 -10 -9 -10 -8 -6 -7 -5 -5 -5 -4 -4 -4 -5 -6 -8 -8 -6 -6 -6 -5 -6 -5 -5 -3 -3 -3 -3 -3 -3 -4 -5 -5 -5 -5 -5 -6 -7 -7 -8 -11 -16 -17 -17 -15 -15 -15 -16 -18 -18 -17
-10 -9 -12 -12 -11 -5 -6 -5 -6 -7 -5 -7 -6 -6 -5 -5 -5 -5 -6 -6 -6 -6 -6 -6 -6 -6 -6 -5 -4 -3 -3 -4 -5 -5 -5 -5 -5 -5 -6 -7 -7 -8 -12 -17 -19 -19 -18 -17 -16 -16 -19 -19 -18 -18
-10 -9 -8 -8 -6 -5 -6 -6 -5 -7 -5 -6 -6 -7 -6 -7 -7 -6 -6 -6 -6 -6 -6 -6 -6 -7 -6 -6 -6 -6 -6 -6 -5 -5 -5 -7 -9 -10 -9 -8 -11 -15 -19 -22 -23 -21 -19 -18 -19 -20 -19 -19 -18 -18

GFSWCAN_850_dewp_243.txt.gz
Dewpoint
-2 -1 -1 -2 -2 -2 -2 -1 -1 -1 -1 -2 -2 -1 -1 -1 -1 -1 -0 -0 -1 -1 -2 -1 0 1 -1 3 5 3 4 5 4 5 5 4 5 4 4 3 4 5 6 6 5 5 5 1 1 2 2 6 5 4
-2 -2 -2 -1 -1 -1 -1 -2 -1 -1 -1 -1 -1 -1 -1 -1 -1 -1 -0 -0 -1 -1 -0 -1 -1 0 2 3 3 3 3 4 4 5 4 4 5 4 4 5 2 4 4 5 5 5 3 6 5 5 5 5 4 3
-2 -2 -1 -1 -2 -1 -1 -2 -1 -1 -2 -2 -1 -1 -1 -1 -1 -0 -0 -1 -1 -0 -1 -0 1 2 0 3 2 2 3 3 4 3 4 3 5 4 5 5 3 3 3 4 3 4 6 4 3 3 2 3 3 3
-2 -2 -3 -2 -2 -2 -2 -2 -3 -2 -1 -1 -1 -1 -1 -1 -1 -1 -1 -1 -1 0 1 0 -0 1 3 3 2 1 1 2 3 3 2 3 4 2 4 4 5 4 4 5 5 6 5 4 3 3 2 2 2 2
-2 -3 -3 -3 -3 -4 -3 -1 -0 -0 -1 -1 -1 -1 0 2 1 -1 -1 -0 -1 1 -1 -0 0 1 3 3 2 2 3 2 3 2 2 3 1 2 1 2 3 3 4 6 5 4 4 5 4 2 2 1 1 2
-2 -2 -4 -3 -3 -1 -0 0 0 -0 -0 -1 -0 1 2 4 0 -1 -0 0 -0 1 -0 -0 -1 0 2 4 4 2 2 3 4 1 0 0 1 2 4 4 1 2 3 3 4 3 2 2 -1 -2 -3 -2 -0 1
-3 -3 -4 -4 -2 -1 -0 0 0 -0 -0 -0 -0 1 0 -0 -1 0 1 1 -1 2 -0 -0 -0 0 0 1 2 2 3 2 1 -0 0 0 1 1 2 3 0 3 3 2 2 0 1 -3 -3 -5 -3 -3 -0 1
-1 -3 -3 -3 -2 -1 -0 -0 0 0 -0 -0 -1 -0 1 1 0 0 1 1 1 1 -0 -0 -1 0 0 0 0 0 -0 -0 -0 -0 -0 0 0 0 2 -0 -1 -1 -2 0 -1 -0 -5 -5 -4 -2 -3 -3 -3 -2
-1 -1 -1 -2 -1 -1 -1 -0 -0 -0 -1 -1 -0 -0 0 0 -0 -0 -0 -0 0 0 -0 -0 -0 1 0 -0 0 0 -0 0 -0 0 0 1 1 1 -1 -1 -1 -2 -4 -2 -2 -3 -3 -2 -2 -2 -2 -2 -2 -1
-2 -1 -1 -1 -1 -1 -1 -1 -0 -0 -2 -3 -2 -1 -0 -1 -0 -1 -2 -2 -0 1 0 -0 -0 1 -1 -0 -0 -1 -1 -0 0 -0 0 0 1 -1 -2 -3 -4 -3 -3 -3 -3 -1 -2 -2 -2 -2 -2 -1 -1 -0
-1 -2 -1 -1 -2 -2 -1 -1 -1 -2 -3 -3 -2 -0 -1 -2 -2 -2 -1 -1 -2 0 -0 -1 -0 -0 -1 -2 -2 -2 -1 -2 0 -1 -1 0 0 -2 -4 -3 -3 -3 -4 -4 -5 -4 -2 -2 -0 -1 -1 -1 -1 -2
-1 -1 -2 -1 -2 -1 -1 -2 -2 -2 -2 -2 -2 -3 -2 -3 -3 -2 -1 -1 -0 1 -0 -0 -0 -1 -1 -2 -1 -2 -1 -1 0 -2 -1 1 -1 -1 -2 -1 -1 -2 -3 -3 -2 -2 -1 -1 -2 -2 -2 -2 -3 -3
-3 -1 -3 -1 -2 -1 -0 -1 -1 -2 -2 -2 -3 -3 -5 -4 -2 -1 -1 0 0 -1 -1 -0 -0 -1 -2 -2 -1 -2 -2 -2 -2 -3 -0 -2 -0 0 -0 -1 -1 -2 -4 -7 -4 -2 -2 -3 -3 -3 -3 -4 -4 -4
-2 -2 -3 -1 -2 -3 -3 -3 -4 -3 -3 -2 -4 -3 -4 -1 -0 -0 -1 -1 -1 -2 -2 -2 -2 -1 -2 -1 -2 -2 -1 -1 -2 -2 -1 -2 -0 -1 -1 -2 -4 -5 -5 -5 -3 -3 -3 -3 -4 -3 -4 -4 -5 -5
-4 -3 -3 -3 -4 -5 -5 -3 -3 -3 -3 -4 -3 -0 -1 -1 -2 -1 -1 -1 -2 -4 -4 -3 -3 -3 -3 -2 -2 -2 -2 -1 -1 -1 -2 -2 -1 -1 -2 -4 -6 -5 -4 -4 -3 -3 -3 -3 -4 -4 -4 -5 -6 -7
-4 -4 -4 -4 -5 -5 -4 -3 -4 -5 -5 -3 -2 -3 -4 -5 -2 -1 -2 -2 -3 -4 -4 -3 -4 -3 -2 -2 -2 -3 -2 -1 -2 -3 -2 -1 -1 -2 -3 -5 -6 -6 -4 -3 -4 -4 -4 -4 -4 -5 -6 -8 -10 -10
-4 -4 -5 -5 -6 -7 -6 -5 -5 -6 -5 -2 -4 -4 -4 -4 -4 -3 -2 -2 -4 -4 -4 -3 -3 -3 -4 -2 -2 -3 -4 -4 -5 -2 -2 -2 -2 -3 -4 -6 -5 -4 -3 -4 -4 -4 -4 -5 -6 -7 -9 -10 -10 -10
-4 -4 -5 -5 -6 -7 -7 -7 -5 -6 -5 -3 -4 -2 -3 -4 -4 -3 -3 -3 -4 -3 -3 -2 -4 -2 -4 -2 -3 -5 -3 -2 -2 -2 -2 -2 -3 -4 -5 -5 -4 -4 -4 -4 -4 -5 -6 -7 -8 -9 -9 -9 -9 -9
-7 -4 -6 -6 -6 -6 -8 -8 -6 -4 -5 -3 -3 -3 -4 -4 -4 -4 -4 -4 -4 -4 -3 -3 -3 -2 -3 -4 -5 -2 -1 -2 -2 -2 -2 -2 -3 -3 -4 -4 -4 -4 -4 -5 -5 -6 -7 -7 -8 -9 -9 -9 -9 -8
-14 -5 -13 -9 -10 -8 -8 -6 -6 -5 -5 -4 -3 -3 -3 -3 -3 -4 -4 -4 -4 -4 -3 -4 -3 -4 -4 -3 -4 -4 -3 -3 -3 -2 -2 -2 -3 -4 -4 -4 -5 -5 -5 -5 -6 -6 -6 -7 -7 -8 -8 -8 -8 -9
-16 -14 -13 -18 -14 -5 -5 -6 -7 -7 -6 -5 -3 -3 -3 -3 -4 -3 -3 -4 -4 -3 -5 -4 -4 -3 -3 -4 -5 -4 -3 -3 -3 -4 -3 -3 -3 -4 -4 -5 -5 -5 -5 -5 -5 -5 -7 -7 -7 -8 -9 -10 -12 -15
-8 -14 -18 -13 -11 -8 -7 -7 -7 -7 -7 -5 -3 -4 -3 -7 -3 -4 -4 -3 -3 -4 -5 -5 -6 -6 -4 -5 -5 -5 -4 -3 -3 -3 -3 -4 -5 -5 -4 -5 -5 -5 -5 -6 -6 -6 -7 -8 -8 -8 -10 -13 -17 -16
-8 -8 -8 -8 -6 -7 -8 -7 -8 -8 -6 -5 -5 -5 -4 -5 -4 -4 -6 -5 -5 -6 -8 -8 -7 -7 -5 -4 -4 -5 -4 -3 -3 -3 -4 -5 -5 -4 -5 -5 -5 -6 -6 -5 -6 -6 -8 -8 -8 -9 -10 -15 -16 -15
-6 -5 -5 -6 -8 -10 -7 -7 -6 -7 -6 -5 -4 -6 -6 -7 -4 -5 -5 -4 -6 -7 -7 -8 -7 -6 -5 -5 -4 -4 -4 -3 -3 -3 -4 -5 -5 -5 -5 -6 -6 -6 -7 -7 -7 -7 -8 -7 -8 -9 -11 -14 -14 -14
-7 -7 -6 -9 -6 -8 -9 -9 -8 -6 -9 -7 -7 -7 -7 -5 -6 -6 -6 -6 -6 -6 -6 -6 -6 -6 -6 -7 -6 -4 -3 -3 -3 -5 -5 -5 -5 -5 -6 -6 -6 -6 -7 -6 -6 -8 -7 -8 -9 -10 -12 -14 -14 -13
-9 -9 -8 -8 -9 -6 -6 -9 -10 -10 -9 -8 -7 -6 -6 -7 -8 -8 -7 -3 -2 -2 -2 -5 -6 -5 -5 -6 -6 -3 -2 -2 -3 -5 -5 -5 -5 -6 -6 -6 -6 -6 -6 -6 -7 -8 -7 -8 -9 -10 -13 -14 -14 -14
-10 -11 -7 -8 -7 -6 -8 -8 -7 -9 -10 -11 -8 -9 -10 -9 -10 -9 -4 -3 -3 -3 -4 -2 -4 -5 -6 -6 -4 -3 -2 -3 -3 -5 -6 -5 -5 -6 -6 -7 -7 -7 -7 -7 -7 -8 -8 -8 -9 -11 -14 -14 -14 -15
-8 -7 -8 -8 -8 -8 -11 -10 -11 -11 -9 -8 -8 -9 -10 -10 -9 -4 -3 -4 -4 -6 -7 -6 -4 -3 -5 -5 -6 -3 -3 -3 -3 -4 -5 -5 -5 -6 -6 -5 -5 -6 -6 -6 -7 -7 -8 -9 -11 -13 -14 -15 -15 -15
-6 -6 -7 -11 -9 -8 -9 -9 -9 -8 -6 -6 -10 -9 -9 -4 -4 -3 -6 -9 -10 -9 -8 -10 -8 -3 -3 -4 -2 -2 -3 -4 -3 -3 -4 -4 -4 -5 -5 -5 -6 -6 -7 -7 -7 -8 -10 -13 -15 -16 -17 -18 -16 -16
-8 -9 -9 -13 -11 -9 -10 -8 -7 -6 -5 -5 -6 -4 -4 -5 -4 -8 -9 -10 -9 -8 -7 -6 -4 -4 -3 -2 -2 -2 -2 -3 -4 -5 -4 -4 -4 -5 -6 -6 -6 -6 -7 -8 -9 -10 -12 -14 -16 -16 -18 -19 -19 -19
-10 -10 -9 -9 -11 -9 -9 -7 -6 -6 -5 -5 -5 -4 -5 -5 -5 -5 -6 -7 -6 -6 -6 -6 -6 -6 -6 -3 -2 -2 -2 -2 -2 -3 -3 -4 -4 -4 -5 -5 -5 -6 -7 -8 -10 -13 -15 -16 -18 -18 -19 -20 -19 -19
-12 -9 -14 -12 -12 -6 -7 -6 -7 -7 -7 -6 -5 -4 -4 -5 -5 -6 -6 -6 -6 -6 -6 -6 -6 -6 -6 -5 -4 -3 -3 -3 -3 -3 -3 -5 -6 -4 -5 -5 -5 -6 -7 -8 -11 -15 -17 -19 -19 -19 -20 -21 -20 -19
-11 -9 -9 -9 -7 -7 -6 -6 -6 -7 -6 -6 -6 -7 -6 -7 -8 -6 -6 -7 -7 -6 -6 -6 -6 -7 -7 -7 -5 -5 -5 -4 -4 -4 -5 -5 -5 -4 -5 -5 -6 -7 -8 -11 -16 -19 -20 -19 -19 -19 -21 -21 -20 -19

GFSWCAN_850_dewp_246.txt.gz
Dewpoint
-2 -3 -2 -2 -2 -1 -1 -1 -1 -2 -2 -2 -2 -1 -1 -3 -3 -2 -2 -1 -1 -1 -3 -4 -4 -3 -3 -4 -1 -1 4 4 5 7 6 6 4 3 2 0 3 5 5 5 5 5 4 -0 2 1 2 5 5 4
-2 -2 -1 -2 -2 -2 -1 -1 -1 -1 -2 -1 -1 -1 -1 -1 -2 -2 -2 -1 -1 -1 -3 -3 -4 -4 -5 -3 -0 -1 1 4 5 6 4 3 3 2 3 4 1 3 3 4 4 4 2 4 4 4 4 5 4 2
-2 -2 -2 -3 -3 -3 -2 -2 -1 -1 -1 -1 -1 -1 -1 -1 -1 -1 -1 -1 -1 -1 -1 -1 -1 -3 -4 -3 -1 1 2 3 4 4 2 2 3 3 5 4 2 2 2 4 3 5 5 4 3 4 4 3 3 2
-2 -2 -3 -3 -3 -4 -4 -4 -3 -3 -2 -1 -1 -1 -1 -1 -1 -1 -1 -1 -1 -1 -1 -1 -3 -4 -3 -0 1 -0 0 1 4 3 2 2 3 1 3 3 3 3 3 4 5 5 4 3 3 2 2 2 2 2
-2 -3 -3 -4 -4 -2 -1 0 0 -0 -0 -1 -1 -1 -1 -1 -1 -1 -1 -1 -1 -1 -1 -2 -1 -2 -3 -1 -3 -1 1 2 4 3 2 3 1 2 2 2 3 3 4 5 5 4 4 4 3 3 2 2 2 2
-1 -3 -4 -4 -3 -1 -0 0 0 -0 -0 -1 -1 -1 -1 -1 -1 -2 -2 -1 -1 -1 -1 0 -1 0 1 1 1 1 1 3 4 3 1 1 2 2 4 4 2 3 3 3 4 4 3 4 4 3 1 -2 -1 -2
-2 -1 -2 -3 -2 -1 -1 -1 0 -0 -1 -1 -1 -1 2 -0 -1 -2 -2 -2 -1 -0 -1 -0 -1 0 0 1 2 2 3 3 2 1 0 1 2 2 2 4 1 2 3 4 4 3 3 3 1 -2 -4 -3 -1 -0
-2 -1 -1 -2 -2 -1 -0 -0 -1 -0 -0 -1 -1 -1 -1 -0 -2 -1 -1 -4 -1 -1 -0 -0 -0 0 0 -0 -0 0 0 0 -0 -0 -0 1 1 1 3 1 1 3 3 3 2 -1 -1 -1 -3 -4 -3 -2 -1 -0
-2 -2 -1 -1 -2 -2 -1 -1 -1 -0 -1 -0 -0 0 -1 -0 -1 -0 -0 -1 -1 -1 -0 -0 1 2 -0 -1 -0 -0 -0 -0 -1 0 0 1 1 3 1 -0 -0 0 0 1 1 0 -3 -4 -2 -2 -2 -1 -1 -1
-2 -1 -1 -2 -2 -1 -1 -1 -2 -4 -0 -1 0 -1 -1 -1 -1 -0 0 0 0 0 -0 -2 -0 1 -0 -0 -0 -0 -0 0 1 0 -0 1 1 0 -1 -1 -1 -2 -3 -4 -2 -0 -1 -1 -1 -1 -1 -1 -2 -1
-2 -3 -2 -2 -2 -1 -1 -2 -2 -3 -2 -1 -1 -1 -1 -1 -1 -0 -1 -1 -1 -0 -1 -1 -0 0 -0 -0 -1 -1 -0 -0 1 1 0 1 1 -0 -1 -2 -1 -3 -2 -3 -3 -2 -3 -3 -2 -2 -1 -1 -1 -2
-4 -3 -3 -1 -1 -1 -2 -1 -4 -4 -3 -2 -2 -1 -1 -1 -2 -1 -0 -0 0 0 -0 -0 -0 -0 -0 -1 -0 -1 -0 -0 1 -1 -1 -0 -1 -0 -1 -1 -2 -3 -4 -4 -4 -4 -3 -2 -2 -2 -2 -3 -3 -3
-4 -4 -3 -2 -3 -2 -3 -3 -4 -4 -2 -2 -4 -4 -5 -3 -1 0 0 1 1 -0 -1 -0 -0 -0 -2 -2 -2 -2 -2 -2 -3 -5 -1 -2 -1 -0 -0 -1 -1 -2 -3 -4 -3 -3 -3 -3 -3 -3 -4 -4 -4 -4
-3 -3 -3 -3 -3 -4 -4 -3 -4 -4 -4 -4 -4 -2 -2 -0 0 0 0 -0 -1 -0 -0 -1 -2 -2 -2 -2 -2 -2 -1 -2 -2 -4 -2 -3 -2 -2 -1 -2 -3 -4 -6 -5 -4 -3 -3 -4 -4 -4 -4 -5 -5 -6
-4 -4 -4 -4 -5 -5 -4 -4 -5 -5 -4 -3 -4 -1 -1 -2 -1 -1 -1 -2 -0 -1 -3 -2 -3 -3 -2 -2 -2 -2 -2 -1 -1 -2 -3 -2 -2 -2 -2 -3 -5 -4 -4 -4 -4 -4 -4 -4 -4 -5 -5 -5 -6 -7
-4 -4 -4 -4 -5 -6 -6 -6 -6 -6 -4 -2 -3 -4 -4 -2 -1 -3 -3 -2 -3 -4 -4 -5 -3 -2 -1 -2 -3 -2 -2 -2 -3 -3 -2 -2 -2 -2 -3 -5 -5 -4 -4 -4 -4 -4 -4 -5 -5 -5 -6 -8 -9 -10
-6 -4 -4 -5 -5 -7 -8 -8 -6 -6 -3 -2 -4 -4 -4 -4 -3 -3 -2 -3 -4 -4 -3 -3 -3 -2 -3 -2 -2 -2 -3 -3 -5 -2 -2 -1 -2 -3 -4 -5 -5 -4 -4 -4 -5 -5 -5 -5 -5 -7 -9 -10 -10 -10
-12 -4 -5 -5 -6 -7 -8 -8 -6 -7 -3 -3 -4 -3 -4 -4 -4 -3 -3 -3 -4 -3 -2 -2 -4 -3 -4 -3 -3 -4 -3 -3 -2 -1 -1 -1 -2 -3 -5 -6 -4 -4 -4 -4 -5 -5 -4 -6 -8 -9 -10 -10 -10 -10
-17 -7 -5 -6 -6 -7 -8 -8 -6 -4 -4 -2 -3 -4 -4 -4 -4 -4 -3 -4 -5 -4 -4 -4 -3 -3 -4 -4 -5 -3 -2 -2 -2 -2 -2 -2 -3 -4 -5 -5 -5 -4 -4 -4 -5 -5 -6 -8 -9 -9 -9 -9 -9 -9
-18 -6 -10 -9 -8 -8 -9 -6 -6 -6 -5 -3 -3 -3 -3 -4 -4 -4 -4 -5 -5 -4 -5 -5 -4 -4 -4 -2 -4 -3 -3 -3 -2 -2 -2 -3 -3 -4 -5 -5 -5 -5 -5 -5 -6 -7 -8 -8 -8 -8 -8 -8 -8 -8
-16 -10 -8 -14 -12 -7 -6 -6 -7 -7 -5 -4 -3 -3 -3 -3 -3 -4 -4 -5 -5 -4 -6 -4 -5 -3 -3 -4 -4 -3 -3 -4 -5 -5 -3 -3 -3 -4 -4 -4 -5 -5 -5 -6 -6 -6 -7 -7 -8 -8 -8 -9 -9 -10
-10 -15 -17 -16 -13 -9 -7 -6 -7 -7 -6 -5 -4 -4 -3 -7 -4 -4 -4 -3 -4 -5 -6 -6 -7 -6 -4 -5 -5 -4 -3 -3 -3 -4 -3 -3 -3 -4 -3 -4 -5 -5 -5 -5 -6 -6 -6 -7 -7 -8 -9 -10 -14 -17
-9 -11 -12 -11 -8 -8 -9 -8 -8 -8 -6 -4 -4 -4 -5 -5 -4 -4 -6 -5 -5 -6 -7 -7 -7 -8 -6 -4 -4 -5 -4 -3 -3 -3 -3 -3 -4 -4 -5 -6 -5 -6 -5 -5 -5 -6 -7 -8 -8 -8 -9 -12 -16 -17
-6 -6 -6 -6 -8 -10 -8 -7 -7 -6 -6 -5 -4 -6 -6 -6 -4 -5 -5 -5 -6 -7 -7 -8 -7 -6 -6 -4 -4 -5 -5 -4 -3 -3 -4 -4 -5 -5 -5 -5 -5 -6 -6 -6 -6 -6 -7 -8 -8 -8 -9 -13 -15 -16
-7 -7 -6 -10 -6 -8 -9 -9 -8 -7 -9 -7 -7 -8 -8 -5 -7 -6 -6 -7 -4 -5 -5 -5 -6 -6 -6 -6 -5 -4 -3 -3 -3 -3 -4 -4 -5 -5 -6 -6 -6 -6 -7 -6 -7 -8 -7 -7 -8 -8 -10 -13 -15 -15
-12 -9 -8 -9 -9 -7 -7 -9 -10 -10 -9 -8 -8 -6 -6 -8 -9 -9 -8 -4 -3 -3 -3 -3 -5 -5 -6 -6 -6 -7 -5 -3 -3 -3 -5 -5 -5 -6 -6 -6 -6 -6 -7 -8 -8 -8 -8 -8 -8 -9 -10 -13 -14 -15
-11 -12 -8 -8 -7 -6 -8 -8 -7 -9 -10 -10 -8 -10 -11 -9 -10 -9 -4 -3 -3 -4 -5 -4 -2 -5 -6 -5 -6 -6 -5 -3 -3 -4 -6 -5 -5 -6 -7 -7 -7 -7 -7 -7 -7 -7 -8 -8 -8 -9 -11 -13 -14 -15
-9 -7 -9 -7 -7 -7 -11 -11 -11 -10 -9 -8 -8 -10 -10 -10 -10 -5 -4 -4 -4 -6 -8 -9 -7 -3 -5 -5 -5 -3 -2 -2 -2 -4 -5 -5 -5 -6 -6 -7 -7 -6 -6 -6 -7 -7 -8 -8 -8 -9 -12 -15 -14 -14
-7 -6 -7 -11 -10 -8 -9 -10 -9 -9 -7 -7 -10 -10 -10 -5 -5 -5 -5 -6 -8 -9 -10 -9 -9 -3 -4 -5 -4 -4 -2 -2 -3 -4 -5 -5 -5 -6 -6 -6 -6 -7 -6 -6 -6 -7 -8 -9 -9 -12 -14 -15 -15 -15
-8 -8 -9 -13 -12 -10 -9 -8 -7 -6 -5 -6 -5 -5 -5 -6 -6 -6 -6 -7 -7 -8 -9 -6 -4 -3 -3 -4 -4 -2 -2 -2 -3 -5 -5 -6 -6 -7 -8 -8 -7 -7 -7 -7 -7 -8 -9 -11 -13 -14 -15 -16 -17 -18
-10 -8 -8 -9 -11 -9 -9 -7 -6 -5 -5 -5 -5 -5 -5 -6 -6 -6 -7 -7 -6 -6 -7 -7 -6 -6 -4 -3 -2 -2 -2 -3 -3 -3 -4 -4 -4 -5 -6 -7 -6 -6 -6 -7 -8 -9 -11 -15 -17 -19 -19 -20 -20 -20
-12 -10 -12 -10 -10 -7 -7 -6 -6 -7 -7 -5 -5 -5 -5 -6 -6 -6 -7 -7 -7 -6 -6 -6 -7 -7 -7 -6 -5 -4 -3 -3 -3 -3 -3 -3 -4 -4 -4 -4 -5 -5 -6 -7 -8 -10 -14 -18 -21 -20 -21 -22 -22 -20
-12 -10 -10 -9 -8 -8 -6 -6 -7 -8 -7 -7 -6 -5 -5 -6 -8 -7 -7 -7 -7 -7 -7 -7 -7 -7 -7 -7 -6 -5 -4 -4 -4 -3 -3 -4 -5 -5 -4 -4 -5 -5 -6 -7 -9 -12 -16 -18 -20 -20 -22 -23 -22 -20

GFSWCAN_850_dewp_249.txt.gz
Dewpoint
-3 -3 -3 -3 -2 -2 -2 -2 -2 -1 -1 -1 -1 -2 -2 -2 -2 -2 -3 -4 -3 -2 -3 -3 -4 -6 -6 -5 -3 -7 -4 -2 -2 0 2 2 5 6 4 2 5 6 7 7 6 8 8 -0 1 2 3 4 2 3
-2 -2 -2 -2 -2 -3 -3 -4 -4 -3 -2 -1 -1 -1 -2 -1 -1 -1 -1 -3 -4 -2 -2 -2 -3 -5 -6 -7 -5 -4 -6 -5 0 3 3 4 5 5 4 5 1 5 4 5 4 5 3 4 4 2 2 4 4 4
-2 -2 -2 -3 -3 -4 -4 -4 -4 -4 -2 -2 -2 -2 -2 -2 -1 -1 -1 -2 -2 -2 -2 -2 -1 -4 -5 -6 -6 -2 -2 -1 -1 -1 -0 4 5 4 6 4 3 1 2 4 3 5 4 4 4 3 3 3 4 2
-2 -2 -2 -3 -4 -4 -4 -2 -0 -0 0 -0 -1 -1 -1 -1 -1 -1 -1 -1 -2 -2 -1 -2 -3 -3 -5 -5 -4 -4 -5 -3 -0 -0 -1 -0 4 2 6 5 3 4 3 1 4 5 4 4 4 4 3 2 2 1
-2 -2 -2 -3 -4 -3 -2 -1 -0 -0 -0 -0 -1 -1 -1 -1 -1 -1 -1 -1 -1 -2 -1 -2 -3 -4 -3 -4 -4 -4 -2 -1 -1 -0 0 1 2 3 2 4 5 3 5 5 6 4 3 4 3 3 2 2 2 2
-2 -2 -2 -2 -2 -1 -1 -0 -0 -0 -1 -0 -1 -1 -1 -1 -1 -2 -1 -1 -1 -1 -1 -0 -2 -2 -4 -3 -3 0 -0 1 0 0 1 1 1 3 6 6 2 2 2 2 4 3 3 3 3 2 2 2 2 2
-2 -1 -2 -1 -2 -1 -1 -0 -1 -1 -1 -1 -1 -1 -1 -1 -1 -1 -2 -2 -2 -1 -1 -1 -1 -1 -1 -1 -0 -0 -1 -0 0 0 0 0 2 2 4 6 2 3 3 3 3 3 3 3 2 2 -1 -0 -0 1
-3 -2 -2 -2 -1 -1 -1 -1 -2 -2 -2 -2 -0 -2 -1 1 -1 -2 -1 -5 -1 -1 -1 0 0 -1 -1 0 0 1 1 1 0 1 0 1 1 2 5 2 2 3 4 3 1 2 2 2 1 -0 -0 0 0 -0
-2 -2 -2 -2 -2 -1 -1 -2 -2 -1 -1 -1 -0 -1 -1 -1 -1 -1 -1 -1 -1 -1 -0 -0 1 0 -0 -1 -1 -1 -0 0 -0 0 1 2 2 4 3 1 3 3 3 2 -1 -1 2 0 -1 -1 -1 -0 -0 -0
-2 -2 -3 -2 -2 -2 -1 -2 -3 -1 -0 -2 -1 -3 -1 -2 -1 -1 -1 -0 -1 -0 -0 -0 -0 1 -0 -1 0 -0 -0 1 2 1 -0 2 2 1 -1 0 2 3 2 2 -0 -0 0 -0 -1 -1 -1 -1 -1 -1
-2 -3 -3 -2 -1 -1 -1 -3 -3 -3 -1 -2 -2 -1 -1 -0 -0 -0 -1 -0 -0 -0 -1 -1 -0 0 -1 0 -0 -1 0 0 1 1 1 1 1 0 -1 -1 -2 -1 2 1 1 -2 -2 -2 -1 -1 -1 -1 -2 -2
-4 -4 -3 -2 -2 -3 -4 -4 -3 -4 -3 -3 -2 -1 -1 -0 -1 -1 -1 -1 -0 0 -1 0 -0 -0 -1 -0 0 -0 0 0 1 -0 -0 1 -1 0 -0 -0 -0 0 0 -1 -2 -2 -1 -1 -1 -2 -2 -3 -3 -3
-5 -4 -3 -3 -3 -5 -5 -4 -4 -4 -2 -3 -4 -4 -3 -2 0 1 0 1 0 -1 -1 -1 0 -0 -0 -1 -1 -0 -0 -0 -1 0 0 -1 -1 -1 -0 0 0 0 -1 -2 -2 -3 -3 -2 -2 -3 -3 -4 -4 -4
-5 -4 -4 -4 -4 -5 -5 -5 -5 -4 -3 -4 -4 -1 -1 -1 -1 0 -0 -0 -1 -0 -0 -1 -1 0 -1 -1 -1 0 -1 -1 -0 0 -0 -1 -1 -2 -1 -1 -1 -2 -3 -3 -3 -3 -3 -4 -4 -4 -4 -4 -6 -8
-5 -5 -5 -4 -4 -6 -6 -7 -6 -6 -3 -4 -4 -1 -1 -1 -1 -2 -1 -1 -1 -1 -2 -2 -2 -3 -2 -1 -1 -1 -0 0 -1 -2 -2 -1 -2 -2 -3 -2 -3 -3 -3 -4 -4 -4 -4 -5 -5 -5 -6 -7 -7 -8
-8 -5 -5 -5 -4 -6 -7 -8 -7 -6 -3 -4 -4 -4 -4 -1 -2 -2 -2 -2 -3 -3 -4 -4 -3 -2 -1 -2 -3 -2 -3 -2 -3 -3 -2 -2 -2 -3 -3 -4 -4 -4 -4 -4 -4 -5 -5 -5 -6 -6 -6 -8 -9 -10
-16 -6 -5 -5 -5 -6 -7 -8 -6 -5 -3 -4 -4 -3 -4 -3 -2 -3 -2 -2 -3 -3 -1 -3 -2 -2 -3 -2 -3 -2 -3 -3 -3 -2 -2 -2 -3 -3 -4 -4 -3 -4 -4 -5 -5 -5 -5 -5 -6 -8 -9 -10 -11 -11
-17 -13 -6 -6 -6 -7 -8 -8 -7 -5 -3 -3 -4 -4 -4 -4 -3 -3 -3 -4 -4 -3 -2 -2 -3 -3 -3 -4 -3 -3 -3 -4 -3 -3 -3 -2 -3 -4 -4 -4 -4 -4 -4 -4 -5 -5 -5 -6 -8 -10 -10 -10 -10 -10
-17 -17 -7 -7 -7 -6 -8 -8 -6 -5 -3 -3 -4 -4 -4 -4 -4 -3 -4 -5 -5 -4 -4 -4 -3 -2 -3 -3 -4 -3 -3 -3 -3 -3 -3 -3 -4 -5 -5 -4 -4 -4 -4 -5 -5 -5 -6 -8 -9 -10 -10 -10 -9 -9
-17 -17 -7 -10 -8 -7 -9 -6 -6 -6 -5 -3 -4 -4 -4 -4 -4 -4 -5 -5 -5 -4 -4 -4 -3 -4 -4 -2 -4 -3 -3 -2 -2 -2 -3 -3 -4 -5 -4 -4 -4 -5 -5 -5 -5 -6 -9 -10 -10 -9 -9 -9 -9 -10
-15 -14 -8 -12 -10 -8 -7 -6 -7 -6 -4 -3 -3 -3 -4 -4 -4 -4 -5 -5 -6 -4 -5 -4 -5 -3 -3 -3 -3 -3 -3 -3 -3 -3 -2 -3 -4 -4 -5 -4 -4 -5 -5 -5 -7 -9 -9 -9 -8 -8 -8 -8 -9 -11
-12 -13 -12 -15 -13 -9 -7 -6 -7 -7 -6 -4 -4 -4 -4 -4 -4 -4 -4 -4 -5 -6 -6 -6 -6 -5 -4 -4 -2 -3 -3 -3 -4 -4 -3 -4 -3 -4 -4 -5 -5 -5 -6 -7 -7 -7 -8 -8 -8 -8 -9 -10 -12 -17
-11 -13 -14 -14 -10 -11 -10 -7 -8 -7 -5 -3 -4 -4 -4 -4 -4 -4 -5 -5 -5 -6 -7 -7 -8 -8 -6 -4 -5 -4 -3 -3 -3 -4 -3 -3 -3 -4 -4 -5 -5 -6 -6 -6 -6 -7 -8 -8 -8 -9 -10 -12 -16 -18
-8 -8 -7 -7 -10 -10 -8 -7 -7 -6 -5 -4 -4 -5 -5 -5 -4 -4 -4 -5 -5 -5 -6 -6 -6 -6 -7 -5 -4 -5 -6 -3 -3 -3 -3 -3 -3 -3 -4 -5 -6 -6 -7 -6 -6 -6 -7 -8 -9 -9 -11 -13 -17 -18
-7 -8 -7 -9 -6 -8 -9 -9 -8 -8 -8 -6 -7 -7 -6 -5 -5 -5 -5 -6 -4 -3 -4 -5 -6 -6 -6 -7 -5 -4 -3 -3 -3 -3 -3 -3 -4 -4 -5 -6 -6 -6 -7 -6 -6 -6 -8 -8 -8 -9 -10 -12 -16 -17
-11 -10 -8 -8 -8 -7 -7 -9 -10 -9 -10 -8 -7 -6 -6 -7 -8 -7 -7 -5 -4 -4 -4 -3 -4 -5 -6 -6 -5 -5 -5 -3 -3 -3 -4 -4 -5 -6 -6 -5 -5 -6 -6 -6 -7 -7 -8 -8 -8 -9 -10 -12 -15 -17
-10 -11 -8 -8 -7 -6 -7 -8 -8 -9 -10 -10 -7 -9 -9 -8 -8 -9 -5 -4 -3 -4 -7 -7 -4 -3 -5 -5 -5 -6 -6 -4 -3 -4 -5 -5 -5 -6 -7 -8 -7 -7 -7 -7 -7 -8 -8 -8 -8 -9 -10 -12 -15 -16
-10 -8 -8 -7 -7 -7 -10 -10 -10 -9 -9 -8 -8 -9 -8 -9 -9 -6 -5 -5 -4 -6 -9 -10 -10 -5 -4 -5 -5 -5 -5 -3 -2 -4 -5 -5 -5 -6 -6 -7 -7 -8 -8 -8 -7 -7 -8 -8 -8 -9 -10 -12 -16 -16
-7 -6 -7 -11 -10 -8 -9 -9 -9 -9 -8 -7 -9 -9 -9 -6 -6 -6 -5 -5 -7 -9 -9 -7 -7 -3 -4 -4 -4 -3 -3 -3 -3 -5 -6 -5 -5 -6 -6 -6 -6 -7 -7 -7 -6 -7 -8 -8 -8 -9 -10 -14 -16 -17
-8 -7 -8 -12 -11 -9 -9 -8 -7 -5 -5 -6 -5 -5 -6 -6 -7 -7 -6 -6 -7 -8 -7 -6 -4 -4 -3 -4 -3 -3 -3 -2 -3 -6 -7 -7 -8 -7 -6 -6 -7 -7 -6 -6 -6 -7 -7 -8 -9 -10 -13 -15 -16 -17
-9 -7 -8 -10 -11 -9 -7 -6 -5 -5 -5 -5 -5 -5 -6 -6 -7 -7 -7 -6 -6 -6 -7 -7 -6 -5 -4 -4 -3 -3 -3 -3 -3 -4 -5 -7 -7 -8 -8 -7 -7 -7 -7 -7 -7 -7 -8 -9 -11 -15 -17 -18 -18 -19
-11 -10 -10 -8 -9 -8 -7 -6 -6 -7 -6 -5 -5 -5 -6 -6 -7 -7 -7 -7 -7 -6 -7 -7 -7 -7 -7 -5 -4 -4 -3 -3 -3 -3 -3 -4 -4 -5 -7 -7 -7 -6 -7 -7 -7 -7 -9 -11 -16 -19 -20 -20 -20 -20
-11 -10 -11 -9 -9 -8 -7 -7 -7 -8 -8 -7 -7 -7 -7 -7 -8 -8 -8 -8 -8 -7 -8 -7 -8 -7 -7 -7 -6 -6 -5 -4 -3 -3 -3 -3 -3 -3 -4 -5 -5 -5 -6 -6 -7 -9 -11 -15 -21 -22 -22 -23 -22 -20

GFSWCAN_850_dewp_252.txt.gz
Dewpoint
-8 -4 -3 -2 -3 -4 -2 -3 -3 -3 -3 -3 -3 -2 -1 -1 -2 -2 -2 -3 -4 -3 -3 -3 -4 -5 -4 -5 -2 -5 -4 -3 -3 -1 -0 -1 -2 -3 -3 -5 -1 6 8 8 8 9 10 -0 0 3 2 4 3 4
-3 -3 -2 -2 -2 -2 -3 -4 -4 -3 -4 -4 -4 -3 -1 -1 -1 -1 -2 -2 -3 -3 -5 -4 -4 -4 -4 -5 -6 -4 -3 -7 -6 -4 -4 -5 -0 -0 -1 1 -3 5 4 6 7 7 4 1 -0 2 3 4 4 4
-4 -3 -2 -1 -2 -4 -3 -4 -4 -4 -2 -0 -1 -2 -2 -1 -1 -1 -1 -1 -2 -2 -3 -3 -4 -4 -2 -4 -5 -3 -4 -4 -6 -6 -2 -0 2 1 3 2 2 1 2 5 4 2 2 3 4 4 5 4 4 -1
-4 -3 -3 -2 -2 -4 -4 -4 -2 -1 -0 -0 -1 -0 -1 -2 -1 -1 -1 -1 -2 -2 -2 -2 -5 -4 -5 -3 -4 -4 -4 -4 -4 -3 -1 1 0 -0 1 1 2 3 3 3 3 4 4 4 4 5 4 4 3 3
-4 -2 -2 -2 -2 -3 -3 -1 -0 -1 -0 -1 -1 -1 -1 -1 -1 -1 -1 -1 -1 -2 -0 -2 -3 -3 -3 -3 -2 -3 -4 -3 -3 -0 1 0 -2 -1 -0 0 1 -0 2 5 5 2 1 3 4 4 4 3 3 3
-3 -3 -2 -2 -2 -1 -1 -1 -1 -1 -1 -1 -1 -0 -1 -1 -1 -1 -1 -1 -1 -1 -1 -0 -1 -3 -2 -2 -2 -3 -3 -3 -1 -1 -0 -2 -3 -1 1 1 -0 3 -0 -0 0 3 3 4 4 4 3 3 3 3
-4 -3 -3 -2 -2 -1 -1 -2 -3 -2 -2 -2 -1 -1 -1 -1 -1 -1 -2 -2 -1 -1 -1 0 -2 -1 -3 -1 -1 -1 -2 -1 -0 -1 -0 0 -2 -0 2 2 -1 2 3 4 4 4 4 4 3 3 3 3 3 3
-3 -3 -2 -2 -2 -2 -2 -2 -2 -1 -1 -1 -1 -2 -2 0 -1 -2 -1 -1 -1 -1 -1 1 -1 0 -0 -0 -0 -1 -0 -0 -0 -0 -1 -0 -0 1 2 0 1 3 4 3 3 3 3 3 3 3 2 1 1 2
-4 -3 -2 -2 -2 -2 -2 -1 -3 -4 -0 -1 -0 -1 -1 -1 -1 -1 -3 -2 -1 -1 -0 0 -2 -1 -1 -1 -1 -0 -0 1 -0 0 0 0 1 3 2 2 2 4 3 2 2 3 3 3 2 1 1 1 1 -0
-5 -3 -3 -2 -2 -1 -1 -4 -4 -3 -1 -1 -1 -2 -1 -1 -1 -1 -1 -1 -1 -1 -0 0 0 1 -1 -1 0 0 -0 3 1 1 1 1 2 1 1 2 3 4 2 2 2 1 2 1 1 1 0 0 -1 -2
-4 -4 -3 -3 -2 -2 -5 -5 -4 -1 -1 -3 -2 -1 -1 -1 -0 -0 -1 -0 -0 1 -1 -0 -0 0 -1 1 2 1 1 2 2 1 2 3 3 1 1 0 2 3 2 1 1 1 1 1 1 0 -1 -2 -2 -2
-5 -5 -4 -3 -3 -3 -5 -6 -5 -3 -3 -3 -1 -1 -1 -0 -1 1 0 0 -0 0 -0 0 0 0 -1 -1 1 -0 1 1 3 1 3 3 1 0 1 1 1 1 1 1 0 0 -0 -0 -1 -1 -2 -2 -2 -2
-6 -5 -5 -4 -4 -4 -5 -7 -6 -4 -3 -3 -1 -2 -0 -0 1 1 1 1 1 -0 -1 -1 1 -0 -1 -1 1 1 1 2 0 3 3 1 0 1 -0 -0 0 1 1 1 0 -0 -1 -2 -2 -2 -2 -2 -3 -4
-6 -6 -5 -5 -4 -4 -5 -7 -7 -4 -3 -2 -2 1 1 1 -0 -0 -1 -0 -0 -0 -0 -0 -0 1 -0 1 0 1 0 1 1 2 2 0 -1 -1 -1 0 0 -1 -0 -1 -2 -2 -2 -2 -3 -3 -3 -4 -6 -7
-11 -6 -5 -5 -5 -5 -6 -7 -6 -4 -3 -3 -3 -0 -1 -1 -1 -1 -1 -1 -1 -1 -0 0 -0 -1 -1 0 -1 -1 1 1 -1 -2 -0 -1 -2 -2 -2 -2 -2 -2 -2 -3 -3 -3 -3 -3 -4 -4 -6 -8 -8 -9
-18 -9 -6 -5 -5 -5 -6 -7 -6 -5 -3 -3 -3 -2 -2 -1 0 -0 0 0 -0 -0 -1 -2 -2 -1 -2 -3 -3 -1 -4 -5 -2 -1 -1 -2 -2 -2 -3 -3 -3 -3 -4 -4 -5 -4 -4 -4 -6 -7 -8 -8 -10 -12
-18 -13 -6 -6 -6 -6 -7 -8 -6 -4 -3 -4 -2 -2 -1 -1 0 -0 -1 -1 -2 -1 0 -3 -2 -3 -3 -3 -5 -3 -1 -1 -3 -2 -2 -2 -2 -3 -3 -4 -4 -4 -5 -5 -5 -5 -6 -7 -7 -8 -10 -11 -12 -12
-17 -16 -12 -7 -7 -7 -8 -8 -6 -4 -3 -3 -3 -2 -2 -2 -1 -1 -1 -1 -1 -2 -3 -3 -3 -4 -2 -5 -3 -1 -3 -3 -2 -2 -2 -3 -3 -4 -4 -4 -4 -5 -5 -5 -5 -5 -6 -7 -8 -9 -11 -11 -11 -12
-16 -19 -14 -7 -7 -7 -9 -7 -6 -4 -2 -3 -3 -3 -3 -3 -3 -4 -3 -2 -5 -3 -2 -3 -3 -3 -2 -3 -2 -2 -3 -3 -3 -3 -3 -4 -4 -4 -4 -4 -5 -5 -5 -5 -5 -6 -7 -7 -9 -9 -9 -9 -9 -10
-19 -18 -9 -9 -8 -7 -8 -6 -6 -5 -4 -3 -3 -3 -3 -2 -3 -5 -3 -3 -3 -3 -2 -2 -2 -1 -1 -1 -1 -1 -2 -3 -3 -3 -4 -4 -4 -4 -4 -5 -5 -4 -4 -5 -5 -7 -7 -8 -8 -8 -8 -9 -10 -11
-15 -14 -9 -10 -9 -7 -5 -5 -6 -5 -3 -3 -3 -4 -3 -3 -3 -3 -3 -4 -3 -3 -3 -2 -2 -1 -3 -3 -2 -2 -2 -2 -1 -2 -3 -4 -4 -4 -4 -5 -5 -4 -4 -5 -6 -7 -7 -7 -8 -9 -9 -9 -10 -15
-12 -11 -12 -12 -11 -9 -6 -7 -6 -5 -4 -3 -3 -3 -4 -2 -2 -3 -3 -4 -5 -4 -4 -3 -3 -2 -2 -3 -3 -2 -2 -2 -2 -2 -3 -4 -4 -4 -4 -5 -5 -5 -5 -5 -6 -7 -7 -8 -8 -9 -9 -10 -13 -20
-11 -11 -13 -13 -10 -11 -8 -7 -7 -6 -4 -3 -4 -4 -4 -3 -3 -4 -3 -5 -4 -6 -6 -6 -7 -6 -4 -3 -3 -3 -3 -3 -3 -3 -3 -3 -4 -4 -4 -4 -5 -6 -5 -6 -6 -7 -8 -8 -8 -8 -9 -11 -17 -19
-8 -8 -8 -8 -10 -7 -8 -6 -7 -6 -4 -4 -4 -5 -4 -4 -3 -4 -5 -5 -4 -5 -5 -6 -6 -6 -6 -4 -3 -3 -3 -3 -3 -3 -3 -4 -4 -4 -4 -4 -5 -5 -6 -6 -7 -7 -8 -8 -8 -9 -10 -14 -18 -20
-7 -9 -7 -6 -7 -7 -6 -5 -6 -6 -4 -4 -5 -5 -4 -4 -4 -4 -6 -5 -4 -4 -4 -6 -6 -6 -4 -3 -5 -4 -5 -3 -3 -3 -3 -3 -3 -4 -4 -5 -5 -6 -6 -7 -7 -7 -8 -8 -9 -10 -12 -15 -19 -20
-7 -8 -7 -7 -6 -6 -8 -5 -5 -5 -5 -4 -5 -6 -5 -4 -4 -5 -6 -4 -4 -4 -4 -4 -4 -4 -5 -5 -4 -4 -4 -4 -3 -3 -3 -3 -3 -4 -5 -5 -5 -6 -6 -6 -7 -7 -8 -9 -9 -10 -11 -13 -17 -20
-8 -8 -9 -8 -7 -7 -6 -7 -8 -7 -6 -5 -5 -4 -4 -5 -5 -6 -5 -5 -4 -4 -6 -8 -7 -4 -4 -5 -6 -5 -5 -4 -3 -3 -3 -4 -4 -5 -6 -7 -6 -6 -6 -6 -6 -7 -8 -9 -9 -9 -10 -13 -16 -19
-9 -9 -7 -7 -6 -6 -6 -6 -6 -6 -6 -8 -5 -4 -5 -6 -6 -5 -5 -5 -5 -7 -9 -9 -11 -9 -4 -5 -5 -5 -6 -5 -3 -3 -4 -4 -5 -5 -6 -6 -6 -7 -7 -7 -6 -7 -8 -9 -9 -9 -10 -12 -16 -18
-8 -8 -7 -7 -7 -7 -7 -6 -7 -8 -7 -6 -4 -6 -6 -6 -6 -6 -6 -6 -7 -8 -7 -5 -5 -4 -4 -5 -5 -5 -5 -4 -3 -4 -5 -5 -5 -5 -6 -6 -7 -7 -8 -7 -7 -7 -8 -8 -8 -9 -10 -11 -16 -19
-8 -7 -7 -8 -7 -6 -6 -7 -6 -6 -6 -5 -5 -6 -6 -7 -7 -6 -6 -6 -7 -8 -7 -5 -5 -5 -4 -4 -4 -3 -3 -3 -3 -5 -7 -8 -7 -7 -6 -6 -7 -7 -8 -7 -7 -7 -7 -8 -8 -8 -10 -12 -16 -18
-8 -6 -7 -8 -7 -7 -7 -6 -6 -6 -5 -5 -5 -5 -6 -7 -7 -7 -7 -7 -6 -6 -6 -7 -5 -4 -4 -4 -4 -3 -3 -3 -3 -4 -5 -7 -8 -8 -7 -6 -6 -7 -7 -7 -7 -7 -8 -8 -8 -9 -10 -13 -17 -19
-9 -7 -7 -6 -6 -8 -7 -6 -7 -5 -6 -4 -5 -5 -6 -5 -6 -7 -7 -7 -7 -7 -7 -7 -7 -7 -6 -5 -4 -4 -4 -4 -3 -3 -4 -6 -7 -7 -7 -7 -7 -7 -7 -6 -6 -6 -7 -8 -9 -10 -12 -16 -18 -19
-11 -10 -9 -8 -7 -7 -7 -6 -6 -6 -6 -5 -6 -6 -6 -6 -7 -9 -8 -8 -8 -8 -7 -7 -7 -8 -8 -8 -7 -5 -4 -4 -3 -3 -3 -4 -5 -6 -7 -7 -7 -7 -7 -7 -6 -6 -6 -8 -9 -12 -17 -19 -20 -21

GFSWCAN_850_dewp_258.txt.gz
Dewpoint
-5 -5 -6 -5 -6 -7 -4 -3 -3 -3 -3 -3 -2 -2 -3 -2 -2 -1 -2 -3 -2 -2 -2 -3 -3 -4 -4 -5 -1 -3 -1 -2 -1 1 1 0 -0 -3 -4 -7 -7 -5 -3 -2 -2 -0 1 -6 -7 -3 -2 0 2 4
-5 -4 -6 -8 -4 -3 -3 -3 -2 -2 -2 -2 -2 -2 -2 -3 -2 -1 -1 -1 -1 -2 -1 -1 -3 -5 -5 -6 -5 -6 -4 -3 0 2 -2 -3 -0 -2 -3 -0 -7 -3 -5 -3 -4 -3 -6 -8 -5 -5 -6 -5 -1 4
-5 -8 -7 -4 -3 -3 -2 -2 -2 -3 -4 -3 -3 -4 -4 -4 -4 -3 -3 -2 -1 -1 -1 -1 -1 -4 -4 -5 -6 -3 -3 -4 -4 -5 -2 -0 1 -1 1 -1 -4 -7 -9 -4 -3 -6 -4 -6 -5 -5 -3 0 2 3
-8 -5 -4 -4 -3 -3 -3 -3 -2 -3 -4 -4 -4 -3 -1 -0 -0 -0 -1 -2 -2 -1 -2 -2 -3 -2 -4 -4 -4 -5 -6 -5 -4 -3 -2 0 0 -3 -0 -1 -1 -4 -6 -4 -2 -3 -5 -6 -7 -5 -3 -0 0 3
-3 -3 -3 -3 -4 -3 -2 -2 -2 -2 -1 -1 -1 -0 -0 -0 -1 -1 -0 -0 -1 -1 -1 -1 -2 -2 -2 -3 -2 -4 -4 -3 -2 -1 -1 0 -2 -1 -0 -1 -0 -5 -3 -2 -2 -5 -4 -5 -6 -6 -1 -1 -2 1
-3 -4 -4 -4 -3 -2 -2 -2 -1 -1 -2 -1 -2 -2 -1 -1 -0 -0 -1 -1 -1 -0 -1 0 -1 -2 -3 -2 -2 -2 -3 -3 -2 -0 -0 -1 -2 -3 1 1 -4 -6 -5 -6 -5 -6 -5 -7 -4 -2 -1 -2 0 3
-5 -5 -4 -3 -2 -2 -2 -1 -1 -2 -2 -2 -2 -4 -1 -2 -1 -0 -1 -0 -1 -0 -2 -0 -1 -3 -4 -2 -2 -2 -2 -2 -2 -1 -1 -1 -2 -2 1 1 -4 -5 -5 -6 -6 -6 -4 -3 -2 -2 1 2 3 4
-5 -5 -4 -3 -2 -2 -2 -2 -2 -2 -2 -2 -4 -2 -2 -1 -1 -1 -1 -1 -0 -1 -2 0 -1 -0 -3 -2 -1 -1 -0 -0 0 -0 -1 -0 -2 -1 0 -3 -5 -6 -5 -5 -5 -5 -4 -3 -1 1 1 2 3 2
-5 -6 -5 -4 -3 -2 -2 -3 -3 -3 -5 -3 -1 -1 -1 -1 -1 -2 -2 -1 -1 -1 -1 -0 -2 -0 -1 -1 -1 0 0 1 0 0 -0 -1 -0 1 -3 -5 -5 -5 -5 -5 -4 -3 1 1 1 1 2 3 1 1
-7 -6 -5 -4 -3 -3 -3 -3 -5 -6 -2 -1 -1 -0 -1 -0 -1 -2 -1 -1 -1 -1 -1 -0 -3 0 -1 1 1 0 -0 2 1 0 -3 0 0 -4 -5 -5 -5 -5 -4 -4 -1 0 0 1 3 4 1 0 -0 -0
-9 -7 -5 -4 -3 -3 -2 -3 -5 -3 -0 -0 0 -1 -1 -1 -1 -0 -1 -1 -1 0 -1 -1 -2 -0 -0 2 1 -0 2 1 1 -1 0 -0 -2 -2 -4 -3 -4 -3 -2 -2 -1 0 2 3 2 1 -0 -1 -1 -1
-6 -6 -5 -5 -4 -4 -3 -3 -5 -1 0 1 0 -1 -1 -0 -0 0 1 -2 -1 -2 -0 -0 0 0 -0 0 1 0 1 2 2 1 2 2 2 1 2 2 0 -2 -1 1 1 2 1 1 0 -1 -2 -2 -2 -3
-8 -6 -6 -5 -5 -4 -3 -3 -4 -5 -2 0 1 -0 -0 -1 0 1 1 -2 -1 -2 1 0 1 0 -1 -0 -0 2 2 1 1 3 2 2 1 -0 -0 0 1 1 2 1 -0 -0 -1 -1 -2 -2 -3 -3 -3 -4
-9 -10 -7 -6 -5 -5 -4 -4 -5 -5 -1 1 0 0 -0 1 -0 -1 2 2 1 1 0 -0 0 0 -0 1 1 2 1 0 2 3 3 0 -1 -2 -2 -2 -1 -2 -2 -2 -3 -2 -3 -3 -4 -3 -3 -3 -3 -4
-9 -13 -10 -7 -6 -5 -5 -5 -5 -6 0 -0 0 2 1 -2 -1 0 -0 -0 -0 -1 0 0 1 0 2 2 1 1 2 1 2 3 0 -2 -2 -3 -3 -3 -3 -4 -4 -4 -4 -4 -4 -4 -4 -5 -5 -5 -6 -7
-9 -14 -17 -10 -6 -6 -6 -5 -5 -2 -1 -1 -2 -2 -3 -1 1 1 0 0 0 1 1 1 1 2 1 -1 -0 -0 -1 1 1 -1 -2 -2 -3 -3 -3 -3 -4 -4 -4 -4 -4 -4 -5 -5 -5 -5 -6 -7 -8 -10
-10 -8 -5 -7 -7 -6 -5 -5 -2 -1 -3 -4 -3 -3 -2 -1 0 1 1 0 -1 -1 1 -1 0 -1 -2 -4 -5 -1 1 -1 -3 -1 -2 -2 -3 -3 -3 -4 -4 -3 -4 -4 -4 -4 -5 -5 -6 -8 -10 -12 -17 -17
-7 -4 -5 -6 -6 -6 -4 -5 -3 -4 -5 -5 -2 -3 -2 0 -0 -0 0 -1 -1 -1 -1 -3 -5 -3 -1 -4 0 -0 -2 -2 -1 -2 -2 -3 -3 -3 -3 -3 -3 -4 -4 -4 -4 -6 -8 -9 -9 -10 -12 -15 -14 -14
-6 -7 -7 -10 -10 -2 -2 -4 -4 -4 -5 -4 -3 -3 -2 -1 -1 -1 -1 -1 -2 -2 -1 -2 -4 -3 -1 -0 0 -2 -2 -2 -2 -2 -2 -3 -3 -3 -4 -4 -5 -5 -5 -6 -7 -8 -8 -9 -11 -13 -13 -13 -13 -11
-19 -24 -18 -15 -9 -2 -4 -5 -4 -5 -4 -4 -3 -2 -3 -2 -2 -1 -0 -1 -3 -2 -1 -3 -2 0 0 -1 -1 -2 -2 -2 -3 -3 -3 -3 -4 -4 -4 -5 -5 -5 -6 -7 -7 -8 -9 -9 -10 -10 -10 -11 -11 -10
-11 -10 -11 -9 -9 -4 -4 -6 -6 -6 -5 -4 -4 -4 -3 -3 -2 -1 -1 -3 -2 -3 -3 -2 -2 -1 -2 -1 -1 -2 -3 -2 -2 -2 -3 -3 -4 -4 -4 -5 -5 -5 -5 -6 -7 -7 -8 -8 -7 -8 -9 -10 -10 -11
-6 -7 -5 -6 -4 -5 -5 -6 -6 -6 -5 -5 -5 -5 -4 -2 -2 -3 -4 -5 -6 -3 -2 -2 -1 -1 -1 -1 -2 -2 -2 -1 -1 -2 -3 -4 -4 -4 -5 -5 -5 -5 -5 -6 -6 -6 -6 -7 -7 -8 -9 -10 -11 -12
-8 -9 -6 -5 -6 -7 -5 -6 -6 -6 -5 -4 -5 -5 -4 -4 -4 -4 -5 -6 -4 -2 -2 -2 -0 0 -1 -1 -1 -1 -1 -1 -1 -2 -3 -3 -3 -4 -4 -5 -5 -5 -6 -6 -6 -6 -7 -7 -8 -8 -9 -11 -14 -13
-8 -5 -5 -6 -6 -4 -6 -5 -6 -8 -7 -6 -5 -5 -6 -4 -4 -6 -6 -7 -3 -3 -3 -3 -2 -0 -0 -1 -1 -1 -1 -1 -2 -2 -3 -3 -3 -4 -4 -4 -5 -5 -5 -6 -6 -6 -7 -7 -8 -9 -10 -12 -16 -14
-5 -7 -5 -6 -7 -4 -4 -3 -5 -6 -2 -3 -4 -4 -3 -5 -4 -5 -6 -6 -3 -4 -3 -3 -3 -4 -2 -1 -1 -1 -1 -1 -3 -2 -3 -3 -3 -4 -4 -4 -4 -5 -5 -5 -6 -7 -7 -8 -9 -9 -10 -12 -15 -11
-6 -6 -7 -7 -6 -6 -6 -4 -3 -3 -4 -2 -4 -6 -6 -4 -3 -4 -8 -3 -2 -3 -3 -3 -2 -4 -4 -4 -2 -1 -2 -1 -2 -2 -3 -3 -3 -3 -4 -4 -4 -4 -5 -5 -6 -6 -8 -8 -9 -9 -10 -10 -11 -11
-7 -7 -9 -9 -9 -10 -8 -7 -7 -5 -3 -3 -4 -2 -3 -3 -4 -4 -3 -3 -4 -4 -4 -4 -5 -4 -3 -3 -2 -1 -2 -2 -2 -4 -4 -3 -3 -3 -3 -4 -4 -4 -5 -5 -6 -6 -7 -7 -8 -9 -9 -10 -11 -12
-8 -9 -7 -8 -7 -9 -7 -6 -5 -5 -5 -8 -4 -3 -4 -6 -4 -4 -4 -5 -5 -4 -6 -9 -11 -10 -7 -4 -3 -3 -2 -2 -2 -2 -3 -3 -4 -3 -4 -4 -4 -4 -5 -6 -6 -7 -7 -8 -8 -8 -9 -10 -12 -13
-9 -10 -9 -6 -7 -8 -7 -6 -7 -8 -7 -8 -2 -4 -4 -4 -5 -5 -5 -5 -5 -6 -5 -5 -5 -6 -7 -9 -5 -4 -3 -3 -3 -3 -3 -3 -3 -3 -4 -4 -4 -4 -5 -7 -7 -7 -7 -8 -8 -9 -10 -10 -12 -15
-10 -10 -9 -7 -6 -6 -6 -5 -4 -5 -5 -4 -5 -5 -6 -6 -6 -6 -6 -6 -5 -5 -5 -5 -5 -5 -5 -5 -5 -4 -4 -3 -3 -3 -3 -3 -3 -3 -4 -4 -4 -5 -6 -6 -6 -6 -6 -7 -8 -9 -9 -10 -11 -14
-10 -9 -9 -9 -8 -5 -4 -5 -5 -5 -5 -4 -5 -5 -6 -6 -6 -6 -6 -6 -6 -6 -5 -6 -5 -5 -5 -5 -5 -4 -4 -4 -4 -4 -4 -3 -3 -4 -4 -4 -5 -6 -6 -6 -6 -6 -6 -7 -8 -9 -9 -9 -10 -12
-8 -9 -8 -8 -6 -5 -6 -5 -5 -5 -4 -4 -4 -5 -5 -5 -6 -7 -6 -6 -6 -6 -6 -6 -6 -6 -5 -5 -5 -4 -4 -4 -4 -4 -3 -3 -4 -5 -5 -5 -6 -6 -6 -6 -7 -7 -7 -7 -8 -8 -9 -9 -10 -11
-8 -8 -8 -6 -6 -6 -5 -4 -5 -5 -4 -4 -4 -5 -5 -5 -6 -7 -7 -7 -6 -7 -7 -7 -7 -7 -7 -7 -6 -5 -5 -4 -4 -3 -3 -4 -4 -5 -5 -6 -7 -7 -7 -8 -8 -7 -7 -8 -8 -8 -8 -9 -9 -10

GFSWCAN_850_dewp_261.txt.gz
Dewpoint
-6 -6 -6 -5 -4 -4 -5 -5 -8 -11 -7 -5 -5 -4 -4 -3 -3 -2 -4 -4 -4 -2 -4 -5 -5 -4 -5 -5 -3 -4 -3 -5 -1 -0 0 1 0 -2 -2 -4 -4 -3 -3 -3 -2 -2 -1 -9 -8 -4 -5 -5 -4 -5
-7 -6 -5 -6 -5 -6 -8 -5 -3 -3 -3 -2 -2 -3 -3 -3 -2 -2 -2 -2 -2 -2 -2 -1 -1 -3 -4 -4 -4 -4 -4 -4 -3 -1 -0 1 1 0 1 1 -4 -2 -5 -3 -3 -4 -7 -8 -8 -9 -9 -7 -5 -4
-6 -5 -5 -5 -8 -5 -3 -3 -3 -2 -2 -2 -3 -3 -3 -2 -2 -2 -2 -2 -1 -1 -1 -1 -1 -1 -1 -3 -4 -2 -2 -3 -3 -4 -3 -1 -0 -0 -1 -2 -2 -3 -4 -2 -3 -5 -6 -7 -6 -5 -5 -5 -7 -6
-5 -6 -9 -8 -5 -4 -4 -3 -3 -3 -2 -3 -4 -4 -4 -4 -4 -3 -2 -3 -2 -1 -2 -3 -3 -3 -5 -5 -2 -2 -3 -3 -3 -3 -2 -1 -1 -3 -2 -3 -2 -3 -4 -4 -4 -5 -7 -7 -7 -8 -8 -6 -7 -5
-7 -7 -5 -4 -3 -3 -3 -4 -4 -3 -1 -2 -2 -2 -1 -0 -0 -0 -0 -0 -0 -1 -1 -1 -2 -2 -5 -3 -3 -2 -2 -2 -2 -2 -1 -2 -4 -3 -3 -2 -1 -5 -3 -2 -2 -5 -5 -6 -7 -7 -6 -6 -4 -2
-5 -3 -3 -3 -5 -4 -4 -3 -3 -2 -1 -1 -1 -1 -1 -1 -1 -1 -0 -1 -1 -0 -1 -1 -1 -2 -4 -3 -2 -3 -3 -2 -2 -2 -2 -1 -2 -2 -0 -1 -5 -6 -6 -5 -5 -6 -5 -5 -5 -6 -5 -4 -4 -3
-8 -6 -4 -5 -5 -3 -3 -4 -3 -2 -2 -2 -2 -2 -2 -3 -2 -1 -1 -1 -1 -0 -1 -1 -1 -3 -4 -3 -1 -1 -2 -1 -1 -1 -1 -1 -1 -2 -0 -0 -4 -5 -5 -5 -6 -6 -6 -6 -5 -5 -6 -3 -2 -1
-7 -6 -6 -6 -5 -3 -2 -2 -3 -2 -2 -2 -2 -2 -3 -1 -1 -1 -2 -1 -1 -0 -1 -1 -2 -2 -3 -2 -1 -1 -1 -0 0 0 -0 -1 -2 -1 -0 -3 -5 -5 -5 -4 -5 -4 -3 -4 -5 -5 -4 -3 1 1
-7 -6 -7 -6 -4 -3 -2 -3 -4 -2 -2 -4 -5 -2 -1 -1 -1 -1 -1 -2 -1 -1 -2 -2 -2 -3 -2 -2 -1 0 -0 1 0 -0 -0 -1 0 0 -3 -5 -5 -5 -5 -5 -4 -4 -5 -4 -4 -3 -0 1 1 1
-6 -6 -7 -6 -5 -4 -3 -3 -2 -2 -4 -4 -1 -0 -1 -1 -1 -2 -1 -1 -1 -1 -1 -1 -2 -1 -2 -0 1 0 -0 0 1 -0 -1 0 -1 -4 -4 -3 -3 -4 -4 -4 -4 -2 -3 -3 -1 1 0 -1 1 -1
-6 -6 -8 -6 -5 -4 -3 -3 -2 -3 -1 -1 -0 -0 -1 -2 -1 -1 -2 -1 -1 -1 -2 -1 -2 -2 -3 0 0 -0 0 -1 1 -0 -0 1 1 1 0 -0 -0 1 2 1 -1 0 0 0 0 0 -1 -2 -2 -2
-6 -7 -10 -7 -5 -4 -3 -2 -3 -4 -1 -0 0 -1 -1 -1 -1 -0 -1 -2 -1 -2 -1 -0 0 -1 1 0 0 -0 1 0 1 1 1 2 1 -0 -1 -1 -1 1 1 1 -0 -2 -2 -1 -2 -2 -3 -3 -4 -4
-7 -7 -9 -6 -5 -4 -3 -2 -3 -4 -0 -0 -0 -1 -1 -2 0 -1 -1 -0 -1 -0 0 0 0 0 -0 -1 -0 0 1 -0 1 2 2 1 -1 -2 -3 -3 -3 -2 -2 -2 -2 -2 -2 -3 -3 -3 -4 -4 -3 -4
-6 -7 -11 -6 -6 -5 -4 -3 -3 -5 -1 0 -0 -1 -1 0 -1 -2 -0 1 1 0 0 0 0 -0 -0 -0 -1 1 -0 1 1 2 2 -2 -2 -3 -4 -4 -4 -4 -4 -4 -4 -4 -4 -4 -5 -4 -4 -4 -4 -5
-8 -9 -13 -11 -9 -6 -5 -4 -3 -5 -2 -1 0 -1 -1 -2 -1 0 -0 -1 -0 -1 -1 -0 -0 -0 0 0 0 0 2 1 2 1 -1 -2 -3 -3 -4 -4 -5 -5 -5 -5 -5 -5 -5 -4 -5 -6 -5 -5 -6 -8
-6 -9 -15 -15 -8 -6 -5 -5 -3 -5 -3 -2 -1 -1 -2 -1 -0 -0 -0 -1 -0 -0 -0 -0 -0 1 1 1 2 1 0 1 0 -1 -2 -3 -3 -4 -4 -5 -5 -4 -4 -5 -4 -4 -4 -4 -4 -6 -7 -9 -12 -17
-6 -9 -5 -11 -13 -7 -6 -4 -2 -1 -2 -2 -2 -3 -3 -1 -1 -0 -1 -1 -1 1 -1 1 2 -0 -1 -1 -2 1 0 -1 -2 -2 -3 -3 -3 -4 -4 -4 -4 -4 -4 -4 -4 -4 -4 -6 -7 -8 -12 -16 -16 -15
-6 -5 -4 -5 -5 -6 -5 -4 -1 -2 -2 -4 -3 -2 -4 -2 -0 -0 0 -0 -1 -1 -1 -0 -2 -1 -2 -2 1 -1 -2 -2 -1 -2 -3 -3 -3 -4 -4 -4 -4 -4 -4 -4 -5 -6 -7 -8 -12 -16 -15 -12 -12 -11
-8 -6 -5 -5 -6 -6 -1 -3 -4 -1 -3 -5 -5 -3 -3 -3 -1 -1 -1 -1 -1 -2 -2 -1 -1 -1 -0 -0 -1 -1 -3 -2 -2 -3 -3 -3 -3 -4 -4 -4 -4 -4 -5 -7 -8 -8 -10 -13 -16 -17 -14 -13 -13 -13
-12 -15 -10 -7 -7 -5 -2 -1 -4 -5 -4 -4 -3 -2 -3 -3 -2 -1 -1 -1 -1 -3 -1 -1 -1 0 -0 -1 -2 -2 -3 -2 -3 -3 -3 -3 -4 -4 -5 -5 -5 -6 -7 -8 -9 -10 -12 -15 -15 -17 -17 -17 -16 -13
-11 -12 -13 -18 -12 -5 -2 -4 -3 -4 -6 -4 -4 -3 -2 -3 -2 -3 -2 -2 -2 -3 -2 -2 -2 -2 -2 -1 -1 -2 -3 -3 -2 -3 -4 -4 -5 -5 -5 -5 -6 -7 -7 -8 -9 -11 -12 -11 -12 -13 -13 -13 -14 -15
-5 -5 -6 -9 -5 -4 -3 -3 -5 -5 -4 -4 -3 -3 -2 -2 -2 -2 -2 -4 -5 -4 -2 -3 -2 -2 -2 -1 -2 -2 -3 -2 -2 -2 -3 -4 -4 -5 -5 -5 -5 -5 -7 -8 -9 -8 -7 -8 -9 -10 -11 -12 -13 -16
-6 -7 -5 -5 -4 -3 -3 -6 -5 -4 -4 -3 -4 -3 -2 -2 -3 -4 -4 -5 -5 -3 -2 -2 -1 -1 -1 -2 -2 -2 -2 -2 -2 -2 -4 -4 -4 -4 -5 -5 -5 -5 -6 -7 -6 -7 -7 -7 -8 -9 -11 -12 -14 -14
-6 -5 -4 -4 -5 -5 -7 -5 -6 -7 -6 -4 -3 -3 -3 -3 -3 -4 -3 -5 -3 -2 -2 -1 -1 -1 -1 -2 -2 -2 -2 -2 -2 -2 -3 -3 -4 -4 -5 -5 -5 -5 -6 -6 -6 -7 -7 -7 -8 -9 -11 -14 -16 -17
-5 -7 -6 -6 -6 -5 -4 -4 -4 -4 -4 -4 -4 -3 -3 -4 -3 -3 -4 -1 -2 -3 -4 -2 -1 -1 -1 -1 -1 -1 -1 -2 -1 -3 -3 -3 -4 -4 -4 -5 -5 -5 -5 -6 -6 -7 -7 -7 -8 -9 -11 -14 -17 -16
-5 -7 -6 -6 -5 -5 -4 -4 -3 -4 -3 -3 -3 -4 -5 -3 -4 -5 -3 -1 -2 -3 -3 -4 -3 -3 -3 -1 -1 -2 -2 -1 -1 -3 -3 -3 -3 -4 -4 -4 -4 -5 -5 -6 -6 -6 -7 -7 -9 -9 -10 -12 -15 -16
-7 -8 -7 -9 -8 -8 -6 -6 -5 -3 -3 -4 -3 -3 -4 -5 -5 -4 -3 -2 -2 -3 -3 -4 -4 -3 -2 -2 -1 -1 -1 -2 -2 -3 -3 -3 -3 -4 -4 -4 -4 -5 -5 -5 -5 -6 -6 -7 -9 -9 -9 -11 -13 -13
-8 -8 -8 -9 -7 -8 -6 -5 -4 -4 -3 -5 -4 -4 -4 -6 -4 -4 -4 -4 -4 -4 -4 -6 -6 -3 -3 -2 -2 -1 -2 -2 -2 -3 -3 -3 -3 -4 -4 -4 -4 -4 -4 -5 -5 -5 -6 -6 -8 -9 -9 -10 -11 -12
-9 -10 -9 -8 -7 -7 -6 -5 -4 -6 -7 -5 -4 -4 -5 -4 -5 -5 -5 -5 -5 -5 -5 -7 -11 -11 -10 -5 -3 -3 -3 -3 -3 -3 -3 -4 -3 -3 -4 -4 -4 -4 -4 -5 -5 -6 -6 -7 -8 -8 -8 -9 -10 -12
-10 -9 -8 -7 -8 -6 -5 -6 -5 -6 -6 -5 -5 -5 -6 -6 -6 -6 -6 -5 -6 -6 -5 -5 -5 -6 -6 -7 -8 -5 -4 -4 -4 -3 -3 -4 -4 -3 -3 -4 -4 -4 -5 -5 -6 -6 -7 -7 -8 -8 -8 -9 -10 -11
-10 -9 -9 -7 -7 -6 -4 -5 -5 -5 -4 -4 -5 -5 -6 -6 -6 -6 -6 -6 -6 -6 -6 -6 -5 -5 -5 -5 -5 -5 -4 -5 -4 -4 -4 -4 -3 -3 -3 -4 -4 -4 -5 -5 -6 -6 -6 -7 -7 -8 -8 -9 -10 -11
-10 -8 -7 -7 -5 -5 -5 -5 -5 -5 -5 -5 -5 -6 -7 -6 -6 -7 -6 -6 -6 -6 -6 -6 -6 -6 -5 -5 -5 -5 -4 -4 -4 -4 -4 -4 -3 -3 -3 -4 -4 -4 -5 -5 -6 -6 -6 -6 -7 -7 -8 -9 -10 -10
-8 -8 -8 -8 -5 -5 -6 -5 -5 -4 -5 -5 -5 -6 -6 -5 -6 -7 -7 -6 -6 -6 -6 -7 -7 -6 -6 -5 -5 -5 -5 -5 -5 -4 -4 -4 -5 -4 -5 -4 -4 -4 -5 -5 -6 -6 -6 -6 -7 -7 -8 -9 -9 -9